ECMWFFLT1_sfc_temp_057.txt.gz
Temp
67 67 67 68 68 67 66 68 69 68 70 70 69 69 68 66 67 69 69 68 67 69 67 67 66 66 65 66 67 66 64 64 64 62 62 63 61 64 66 66 66 67 71 71 72 67 66 59 58 64 67 66 67 69 71 72 71 70 70 71 74 74 73
67 68 69 68 65 66 65 67 67 67 69 70 71 70 69 65 66 67 70 69 69 69 69 69 68 68 67 67 67 66 65 65 65 66 65 65 64 64 64 65 67 68 70 70 70 71 68 64 61 60 61 64 66 67 69 71 72 71 71 72 74 75 73
66 66 66 65 66 66 66 68 68 67 67 67 69 71 69 66 66 67 69 69 69 70 68 69 67 67 67 67 68 67 66 65 66 67 67 67 67 67 67 66 66 66 67 67 68 68 68 69 64 63 63 61 61 66 68 68 70 70 72 72 72 76 74
66 66 64 64 65 65 66 67 67 67 67 67 69 70 69 68 67 67 68 69 69 69 68 68 65 65 66 67 68 67 66 65 64 65 65 66 66 66 67 67 68 69 67 66 67 68 68 66 67 66 66 67 67 64 66 69 69 70 72 72 73 74 73
67 66 65 64 65 65 66 66 67 67 67 67 68 67 65 66 67 65 67 67 67 68 68 69 68 67 67 68 68 67 66 64 65 65 65 64 65 64 66 69 70 71 71 70 70 71 70 70 69 67 66 68 69 69 69 66 69 69 71 73 75 75 74
66 66 66 64 66 65 65 66 65 66 67 65 66 66 65 67 68 67 66 66 66 67 68 67 67 66 64 66 68 69 68 66 66 66 65 65 66 65 67 69 71 71 71 73 72 72 72 72 71 68 70 71 67 68 69 67 66 69 71 73 75 75 75
66 65 64 64 66 65 66 66 67 67 68 68 67 67 68 68 68 67 67 67 70 69 68 66 66 65 66 66 68 68 68 68 68 67 66 67 66 66 68 69 69 71 71 72 71 71 70 70 70 69 67 68 69 68 68 67 70 68 70 73 75 76 75
64 64 64 64 64 65 66 67 68 68 69 70 69 69 70 68 68 68 67 67 68 68 67 65 65 66 67 67 68 68 69 68 68 67 67 66 65 65 66 68 69 70 71 71 70 72 74 73 72 71 68 63 63 65 65 68 69 69 71 73 75 74 74
65 64 64 64 65 66 67 68 67 68 69 71 70 69 68 68 67 69 69 69 68 67 67 66 66 67 68 67 68 68 68 69 67 67 67 67 66 66 65 65 66 67 70 69 70 71 74 75 74 72 71 69 64 61 65 65 67 69 74 72 73 74 74
66 65 64 64 64 65 64 65 66 68 69 70 69 68 67 66 67 68 68 67 67 66 67 67 67 68 68 67 67 67 67 67 66 67 67 67 67 66 66 67 67 67 68 69 67 68 68 73 74 74 74 72 71 68 64 64 65 67 70 73 71 72 74
67 67 66 66 65 64 64 64 65 66 68 69 69 68 67 66 66 67 67 66 67 67 67 67 66 65 65 64 65 67 67 67 66 66 67 67 67 67 66 66 67 67 70 69 67 70 69 71 73 74 74 75 75 71 69 66 66 70 71 72 74 73 73
67 67 66 65 65 64 64 64 65 67 68 68 68 67 66 67 66 66 66 67 67 67 67 66 65 64 64 63 64 66 67 66 65 64 66 67 68 67 66 65 66 68 70 69 70 70 70 70 72 74 74 75 74 73 71 71 67 70 74 69 72 77 74
66 66 66 65 64 65 65 66 66 66 66 67 68 68 67 67 67 67 67 67 68 68 67 66 66 66 65 65 65 66 67 67 66 66 66 67 69 68 67 66 67 67 68 70 68 67 66 70 73 74 74 73 73 73 73 72 70 68 71 73 73 74 74
64 66 66 66 65 65 66 66 66 67 67 66 67 67 67 68 68 68 68 68 69 68 67 67 68 67 65 65 66 66 67 67 66 66 67 66 68 68 68 68 68 68 68 66 66 69 72 73 72 72 74 73 72 72 72 71 70 69 68 70 72 72 73
65 65 65 66 65 65 66 66 66 66 65 67 67 68 68 68 68 68 69 70 70 69 67 67 66 66 66 65 65 66 68 67 66 67 66 66 67 67 67 68 69 67 65 66 68 71 73 72 73 73 73 73 73 72 72 73 72 71 68 67 69 73 70
62 63 64 64 65 64 65 65 66 65 65 66 68 68 68 68 68 69 70 70 71 70 68 66 65 65 65 65 66 66 67 67 66 66 65 66 67 67 65 66 67 65 66 66 68 70 71 72 74 75 74 73 67 71 74 75 73 70 70 68 69 70 70
59 62 62 62 63 64 65 65 64 64 65 67 67 68 69 70 69 69 69 70 70 69 69 67 65 66 67 67 66 66 67 67 67 67 66 67 68 67 66 65 67 67 67 68 70 70 71 72 72 74 74 73 70 71 72 72 73 73 72 70 68 73 72
57 57 60 63 63 64 64 63 62 63 65 66 67 68 69 71 70 69 68 69 69 68 67 66 65 65 66 66 66 66 67 67 67 68 67 67 67 67 66 66 67 68 67 67 69 70 71 70 73 73 73 74 73 72 69 71 73 74 71 70 69 71 71
55 56 58 61 62 62 61 61 62 63 66 67 68 68 68 70 71 71 71 71 71 70 69 67 67 66 66 66 66 66 67 67 68 68 67 67 67 67 68 68 67 68 67 68 69 69 70 70 72 71 73 74 75 73 68 70 71 72 72 72 71 67 68
55 56 57 59 61 61 61 62 63 64 67 68 68 67 67 68 69 71 73 73 73 72 71 69 68 67 66 66 66 66 66 66 66 67 67 66 67 67 67 67 68 68 67 68 69 69 69 69 69 70 71 71 74 73 68 68 72 71 70 71 71 71 69
55 55 56 59 60 61 61 62 62 65 66 67 67 68 68 68 70 71 72 72 72 73 72 70 69 68 67 66 66 66 66 64 64 64 64 65 66 66 65 64 66 68 69 70 70 70 69 66 70 70 71 72 72 71 69 69 67 69 69 69 69 69 70
55 55 56 56 58 60 61 61 62 64 65 67 67 69 69 69 69 69 71 72 73 72 71 70 71 69 68 67 67 66 65 65 64 64 63 64 64 65 64 64 66 68 68 65 61 61 62 63 70 70 70 71 70 70 70 67 60 58 65 67 68 69 68
54 55 55 54 55 58 60 61 62 64 65 66 67 68 68 69 69 69 69 70 71 70 69 69 63 56 59 69 69 69 67 66 65 65 64 63 64 66 66 66 66 63 60 58 55 52 52 54 57 66 71 71 70 70 69 62 61 63 64 65 68 68 66
54 53 53 53 54 56 58 60 62 62 64 65 63 65 66 68 68 69 69 69 67 67 67 65 50 48 49 54 68 69 68 67 67 66 65 64 63 65 66 68 68 63 61 58 59 48 50 48 49 51 53 57 62 68 65 60 62 66 67 67 69 68 68
53 52 52 52 52 53 55 57 58 60 62 62 63 64 64 66 66 66 67 68 66 65 63 49 43 45 46 47 54 69 70 69 68 67 67 66 66 66 66 67 67 67 67 67 67 61 54 46 47 47 45 45 45 46 46 61 65 64 63 67 68 68 69
52 51 52 51 52 51 50 50 50 52 54 56 59 60 60 60 61 63 64 65 64 63 61 42 42 42 44 43 44 57 71 70 69 68 68 69 69 68 67 66 65 65 66 57 62 65 63 57 45 42 44 45 43 42 42 40 42 60 67 64 67 67 69
51 51 51 51 51 50 49 48 48 48 48 50 51 53 54 55 56 57 59 61 60 60 60 45 40 41 42 42 41 50 70 69 69 70 70 71 71 70 69 68 67 64 64 63 64 63 64 62 61 61 61 62 60 54 47 45 46 47 57 64 63 66 65
50 51 51 51 50 49 48 48 47 47 46 46 47 48 49 50 51 53 55 56 58 56 52 40 40 41 41 40 40 48 68 67 68 69 69 69 68 67 67 67 67 66 65 64 64 62 63 63 62 60 60 59 59 57 55 55 54 58 60 61 64 63 61
50 51 50 50 49 48 48 47 46 46 46 46 47 48 48 50 49 49 50 52 54 54 51 40 39 40 40 40 42 62 66 65 65 65 64 64 65 66 66 66 66 65 64 64 53 48 55 62 60 58 56 56 55 53 50 46 44 46 52 55 56 57 56
49 50 50 49 49 48 47 47 46 46 45 45 45 45 46 47 48 48 48 48 48 50 50 43 39 42 41 43 52 65 64 64 63 61 61 60 62 62 63 65 66 65 63 62 48 44 47 53 61 59 57 55 55 55 53 50 43 41 41 41 40 40 40
50 50 50 49 48 49 49 49 48 47 45 44 44 44 45 45 46 45 45 46 46 46 48 44 39 42 43 46 54 61 62 62 60 60 58 59 60 60 56 49 58 65 62 59 43 44 46 57 62 59 57 55 54 53 52 52 50 46 42 42 42 42 42
50 50 50 50 50 49 49 49 49 49 47 46 45 46 46 44 44 44 44 44 45 44 45 45 40 40 42 44 54 59 59 59 58 59 58 56 57 57 56 51 44 51 58 51 40 43 44 56 61 60 59 57 54 53 53 53 51 50 51 51 50 49 47
51 50 50 50 50 50 51 50 49 49 49 48 46 46 46 45 44 43 44 44 44 43 42 43 42 39 40 41 44 56 58 57 56 57 58 58 56 56 55 55 49 39 40 40 40 41 44 49 62 61 61 59 56 52 55 55 54 52 51 50 49 49 48
50 50 50 50 50 51 51 50 50 50 49 49 49 47 46 45 45 44 44 44 44 43 43 42 41 39 40 41 41 46 54 53 54 55 55 55 56 55 53 52 51 40 38 39 39 39 40 41 47 62 62 60 58 54 52 54 51 48 53 52 52 53 54
50 49 50 50 49 49 50 51 50 50 50 49 48 46 46 45 45 44 44 44 44 43 44 43 42 40 39 40 40 41 47 49 49 49 48 48 50 49 48 46 45 41 38 39 39 39 40 41 43 54 49 42 41 43 55 55 56 57 56 56 56 55 55
50 50 50 50 50 49 49 49 48 49 49 49 47 45 45 44 44 43 43 44 43 43 43 43 40 40 39 39 39 40 40 43 42 48 46 45 46 47 48 46 44 39 39 39 39 39 40 40 42 43 39 40 40 41 46 54 54 55 55 54 54 53 52
51 51 51 51 51 51 49 49 48 47 47 47 46 45 44 44 43 42 42 42 42 42 43 43 41 39 40 38 38 39 39 39 41 44 45 44 44 44 44 43 41 38 38 38 38 38 38 40 41 38 39 39 41 44 52 52 52 52 50 50 50 50 50

ECMWFFLT1_sfc_temp_063.txt.gz
Temp
70 68 72 73 75 76 75 77 77 78 80 80 79 79 79 79 79 78 78 77 76 77 76 74 73 72 71 71 70 69 69 69 67 65 65 65 64 66 69 69 68 68 68 67 66 62 61 60 62 66 66 67 68 70 72 73 75 69 76 77 79 79 78
69 70 74 75 74 76 75 77 76 78 79 79 81 80 80 80 79 79 79 78 76 76 76 75 75 74 71 70 68 66 67 68 68 67 67 66 67 67 66 65 66 65 65 66 66 64 60 60 61 62 60 64 66 69 71 73 70 74 76 77 79 80 78
73 76 75 71 70 72 73 72 76 76 77 77 78 80 80 80 79 79 79 78 77 77 77 78 77 76 73 71 69 69 69 68 69 68 67 67 67 70 67 66 64 64 61 62 63 63 63 62 60 61 64 62 62 66 70 69 69 73 77 77 77 81 80
73 74 73 73 73 71 72 75 75 75 76 77 78 77 77 78 78 79 77 78 78 77 78 78 76 76 75 72 71 69 69 68 68 68 68 70 70 67 64 63 64 66 63 62 62 63 63 62 61 61 64 67 66 64 67 71 71 72 74 75 78 80 78
73 73 72 71 73 70 71 70 72 75 74 76 77 77 77 77 77 77 77 77 77 76 76 77 76 76 75 73 70 68 67 68 70 69 69 68 68 67 65 66 69 69 66 64 65 67 64 63 62 62 65 63 68 67 71 71 73 71 70 70 78 79 79
72 73 73 73 73 71 72 72 74 74 75 74 75 76 76 76 76 75 76 76 76 76 77 76 75 76 74 74 72 71 71 70 70 70 70 68 68 67 66 70 69 67 65 66 67 68 66 65 63 61 65 65 64 63 69 69 69 72 71 68 76 81 80
70 71 73 73 73 74 74 73 73 73 74 72 72 72 75 71 75 76 76 76 77 77 77 77 76 76 74 73 73 71 71 71 71 70 69 69 66 67 70 70 69 67 66 66 68 69 65 64 62 63 64 62 64 63 68 68 71 68 67 67 70 78 73
70 71 71 72 73 72 74 74 74 75 74 75 74 75 73 76 76 76 76 76 76 75 77 75 75 75 75 75 75 73 72 72 72 70 70 67 67 66 66 67 69 69 67 68 69 68 69 65 68 69 67 61 60 61 61 65 70 68 68 68 74 80 79
68 69 71 72 72 72 73 73 73 73 74 75 75 75 74 73 73 74 75 75 74 72 70 74 74 71 74 73 74 73 71 74 72 72 72 71 70 67 66 67 68 68 68 69 70 71 73 73 72 71 69 63 59 58 63 62 65 66 73 67 70 75 76
67 67 67 69 71 73 73 73 73 73 74 74 74 75 72 70 71 73 71 67 69 70 72 74 73 73 72 71 73 73 73 75 74 73 72 71 72 70 66 68 68 66 66 69 72 74 72 71 72 71 70 67 64 61 61 61 61 63 69 72 69 72 80
68 68 68 68 70 72 73 74 74 74 73 74 74 74 73 68 69 72 70 69 68 70 70 73 72 72 70 74 73 73 75 74 73 73 72 71 71 73 72 69 67 68 73 73 72 72 72 70 67 68 69 71 68 63 64 61 62 67 66 73 70 76 82
68 68 68 68 68 69 71 73 74 74 74 74 74 73 72 69 67 69 71 70 67 68 71 72 72 72 72 69 70 73 74 74 73 73 73 72 72 72 70 67 67 69 73 71 71 68 68 68 68 68 67 70 71 69 67 63 59 65 68 67 73 83 81
67 67 66 66 67 68 71 73 74 74 74 74 74 73 72 71 69 68 67 68 66 67 68 70 70 69 69 69 69 72 72 74 74 73 74 73 74 71 70 69 70 72 72 72 71 68 67 69 70 69 70 72 69 67 65 64 62 61 66 69 74 78 82
65 66 65 65 66 68 69 71 73 73 75 74 73 71 69 70 70 68 68 67 67 67 67 68 68 68 66 66 67 74 75 75 74 73 73 72 74 71 71 72 74 73 73 71 71 70 69 71 72 72 76 75 69 66 65 66 65 64 66 68 69 75 80
65 65 64 64 64 66 66 68 70 73 72 73 73 72 68 67 66 65 66 66 67 70 71 70 70 67 66 64 66 69 71 75 75 75 73 73 72 72 72 74 74 72 72 72 70 71 75 74 75 75 74 74 69 67 69 69 67 65 65 65 65 76 79
64 63 63 63 63 63 65 66 69 70 72 72 72 70 69 67 66 66 66 65 66 67 67 70 67 65 65 66 67 74 75 75 74 73 73 72 74 74 73 73 72 69 71 70 69 70 74 74 76 75 73 75 73 72 71 69 66 65 66 68 71 69 74
63 63 62 62 62 62 63 65 67 68 71 71 71 70 68 67 65 65 64 66 67 67 67 70 71 69 67 68 71 70 74 73 72 73 73 73 73 73 71 71 69 69 70 69 69 71 72 73 72 73 72 72 73 73 69 66 64 66 68 68 69 66 72
62 62 62 62 61 61 61 62 64 66 68 70 71 71 68 66 65 64 65 65 65 65 66 68 68 68 67 66 67 69 71 73 74 73 74 73 71 72 71 69 72 69 69 69 69 69 72 70 72 71 73 74 74 71 68 65 64 66 68 66 66 70 71
63 63 63 62 61 60 60 61 62 63 66 68 68 67 67 65 64 64 65 67 67 66 67 68 69 67 68 67 66 68 72 70 74 75 74 74 74 72 71 73 68 71 67 69 67 68 70 71 72 72 72 74 73 71 66 65 65 63 67 68 68 66 68
64 63 62 62 62 61 60 59 61 62 63 64 65 65 64 63 64 65 68 68 66 66 67 67 66 66 66 69 69 68 69 70 70 73 75 75 75 73 72 73 72 70 69 68 69 68 70 70 71 72 72 69 70 69 66 63 64 65 65 67 71 73 72
65 65 64 63 62 61 61 59 58 61 61 61 61 60 59 61 63 65 65 66 66 65 65 65 66 65 66 66 65 67 68 67 72 74 74 75 75 75 73 72 73 73 74 73 69 70 70 68 70 69 69 66 64 65 65 65 66 65 67 69 70 71 73
66 65 64 63 62 61 60 58 57 58 58 58 59 59 58 58 59 62 65 64 65 65 64 63 65 64 63 64 65 69 68 73 73 73 73 75 73 72 73 73 75 76 74 71 64 63 63 64 71 68 66 67 66 65 68 68 67 65 67 70 68 72 74
66 65 64 63 63 62 60 59 57 56 56 57 57 57 57 57 57 58 60 63 64 64 61 59 51 45 49 56 58 62 68 71 72 74 74 73 73 73 75 77 76 69 63 61 58 53 51 51 56 67 67 66 66 67 67 67 67 68 69 68 67 69 71
65 64 64 64 63 62 61 60 57 56 55 56 55 55 55 55 54 54 56 59 61 54 49 46 42 41 40 42 52 58 62 67 69 70 74 74 73 74 75 77 76 69 66 63 61 48 47 46 47 50 54 58 63 69 67 66 66 66 68 69 68 69 71
63 63 63 63 62 62 61 60 58 56 55 54 55 55 53 54 54 53 53 55 57 53 49 43 40 41 40 40 44 52 60 64 65 71 72 73 74 74 74 74 73 74 73 73 73 64 54 46 45 45 44 46 49 53 56 68 67 66 67 67 67 70 71
61 61 62 62 62 62 61 59 58 57 55 55 54 53 53 53 52 52 51 52 52 54 48 42 40 40 40 40 40 46 59 65 66 65 70 70 73 75 74 73 72 72 75 65 70 72 68 58 47 43 44 44 44 47 50 50 52 63 71 68 69 69 71
60 60 61 61 61 60 59 58 58 58 57 56 53 51 52 52 52 51 51 50 50 53 49 43 40 40 40 39 40 42 59 64 67 68 67 68 71 72 72 73 72 72 73 71 72 72 72 67 63 62 63 66 66 54 48 48 49 44 57 68 69 69 68
60 60 60 60 60 59 58 57 57 58 58 57 55 52 50 50 50 50 50 49 49 50 49 41 40 39 39 39 39 44 59 63 67 69 69 67 67 69 70 71 72 72 71 71 71 69 70 68 66 65 66 68 67 65 66 66 67 68 68 68 68 67 65
60 60 59 58 58 57 57 58 57 57 57 58 58 56 54 52 50 49 50 49 48 47 48 41 40 39 39 39 39 53 62 64 67 69 70 69 67 67 67 68 71 72 69 67 60 55 61 69 68 67 67 67 66 63 57 46 39 42 57 68 69 66 63
61 61 59 57 57 56 56 57 57 58 57 57 57 56 55 55 53 50 49 48 47 46 47 44 40 39 38 38 41 52 59 64 67 69 69 69 67 65 64 64 64 66 65 67 54 50 51 56 70 68 67 65 64 64 59 54 44 41 40 39 40 41 40
61 61 61 58 57 56 57 57 57 57 56 56 56 57 57 57 56 53 50 48 47 45 45 45 40 39 39 38 40 48 56 61 64 66 69 71 68 65 57 49 54 63 64 65 47 51 50 60 68 69 68 66 64 61 59 58 57 51 42 42 41 41 41
61 61 61 60 59 58 58 57 57 57 57 56 56 57 57 57 56 55 53 51 48 46 45 45 41 39 38 39 40 45 52 57 59 61 65 65 67 65 64 55 45 46 56 57 43 47 48 60 70 68 68 66 64 61 60 60 58 58 59 59 58 59 56
60 60 61 61 61 61 61 59 58 58 57 57 56 55 55 55 54 54 54 53 51 48 45 45 43 38 39 39 38 43 51 53 53 54 58 59 63 62 60 59 51 40 38 39 41 43 45 45 62 69 68 66 64 60 62 62 61 62 62 62 61 61 60
60 61 62 61 61 61 61 60 59 59 58 57 56 55 53 53 53 53 54 54 53 51 48 46 45 40 39 39 38 40 48 48 50 52 52 53 53 53 54 52 52 41 38 39 40 39 41 41 43 65 68 69 66 62 59 63 61 54 62 61 60 60 61
60 59 61 61 60 59 60 61 60 59 59 58 56 55 53 53 52 51 52 52 52 51 50 46 46 43 40 39 39 38 41 43 43 48 47 47 48 48 46 46 46 41 38 39 39 41 42 45 47 63 58 48 46 49 63 62 63 63 62 63 63 62 62
60 60 60 60 60 59 59 59 59 59 58 57 57 55 54 52 51 50 50 50 50 50 50 49 43 45 42 39 39 39 38 39 39 44 43 42 42 42 43 42 41 39 39 39 39 39 41 43 46 47 43 46 47 47 54 65 64 64 64 64 63 61 61
61 60 61 60 59 58 58 58 58 58 58 56 55 55 55 53 51 50 48 48 48 48 48 48 45 42 44 40 40 39 39 38 38 41 41 40 40 40 41 40 39 38 39 39 39 39 38 39 41 39 40 42 47 50 65 65 66 65 62 62 61 61 61

ECMWFFLT1_sfc_temp_069.txt.gz
Temp
65 64 65 64 64 65 64 66 67 68 68 68 69 68 69 69 69 68 67 67 68 66 64 65 65 65 65 64 64 64 64 64 63 62 61 62 61 61 63 62 62 62 62 62 62 59 57 56 58 62 62 62 62 63 64 65 65 64 63 64 65 65 65
66 66 67 66 64 64 63 65 66 67 67 68 68 68 68 69 68 68 67 67 66 65 65 65 65 65 64 64 63 63 63 63 63 63 63 62 62 62 60 60 61 60 61 60 61 61 57 56 56 58 59 62 62 62 63 65 65 64 64 65 66 66 65
65 65 65 64 65 65 64 65 65 66 66 66 68 68 68 69 69 68 67 66 65 66 66 65 65 64 64 64 64 64 64 63 64 63 63 63 62 63 62 61 60 60 60 59 59 59 60 60 57 58 59 59 58 61 63 63 64 65 65 64 65 67 67
64 63 61 62 64 64 65 66 67 67 67 68 66 67 67 68 67 67 66 65 66 65 65 65 64 64 64 64 64 64 64 63 63 63 62 63 63 63 62 61 61 60 60 59 59 60 60 58 58 58 59 60 60 59 61 64 64 65 66 65 66 66 68
64 63 62 61 62 63 64 64 65 65 65 66 65 65 65 66 66 66 66 66 66 65 64 64 64 65 64 65 64 64 64 63 63 63 63 63 63 62 63 62 62 62 62 61 61 62 60 60 61 59 59 60 60 61 63 63 65 65 65 64 67 67 68
62 63 63 63 63 62 62 62 63 63 64 64 65 66 66 67 67 67 66 65 65 65 65 63 63 64 63 64 64 64 64 63 64 64 63 63 63 62 62 63 62 62 62 62 63 62 61 61 61 58 60 61 58 59 61 62 61 64 66 65 65 66 68
62 63 63 63 62 62 62 62 63 64 64 64 65 65 66 67 66 67 66 65 65 65 65 65 64 64 65 64 63 63 64 64 63 63 63 64 64 64 63 62 62 62 62 63 63 62 61 60 59 59 59 59 60 59 60 61 62 61 62 65 64 66 65
62 62 62 62 62 61 62 62 63 63 63 64 65 66 67 66 66 66 66 65 65 65 65 64 64 64 64 64 64 63 63 63 63 63 62 63 63 63 63 62 62 62 62 63 63 63 63 62 62 61 60 57 57 58 58 59 60 61 63 64 66 65 66
63 63 62 62 62 62 62 62 62 62 62 63 65 66 66 67 66 66 66 65 65 65 65 65 64 64 64 63 63 63 62 64 63 63 63 63 63 63 63 63 62 62 62 63 63 64 63 63 63 63 62 60 57 54 57 57 58 60 65 62 64 65 65
62 61 61 61 62 62 62 62 61 61 62 63 64 66 65 67 67 66 66 65 65 64 64 64 64 63 64 63 62 62 62 63 62 62 62 63 63 63 63 63 61 61 62 63 63 64 64 63 64 64 64 62 61 58 55 55 57 57 61 64 61 63 65
61 61 61 61 62 61 61 61 61 61 62 63 64 64 65 65 66 67 65 64 64 64 64 64 64 64 63 62 62 62 63 63 63 62 62 62 63 63 63 63 63 62 64 63 64 64 63 63 63 63 63 63 61 60 58 56 56 59 59 63 64 63 64
61 61 62 62 61 61 60 60 60 60 62 62 62 62 63 63 63 64 64 64 63 63 63 63 63 63 63 63 63 62 63 63 62 62 62 62 62 63 62 62 63 62 64 63 64 64 64 63 63 63 62 62 62 63 60 59 55 58 63 60 63 66 64
61 61 61 61 60 60 60 59 59 59 60 62 61 62 62 62 61 61 60 60 61 61 62 62 62 62 62 62 62 62 62 63 62 62 62 62 63 62 62 62 63 63 64 64 63 64 63 64 64 63 63 62 62 61 60 59 58 57 60 61 61 63 65
60 60 60 60 60 60 59 59 58 58 59 59 60 60 60 60 60 58 58 59 59 60 61 63 63 62 62 62 62 62 63 63 62 62 61 62 63 62 62 62 63 64 64 63 64 63 62 63 62 62 63 62 61 61 60 60 58 57 58 60 61 61 64
59 58 58 60 59 59 58 57 58 57 57 58 59 59 59 59 59 58 58 56 54 52 52 54 56 59 61 62 62 62 62 62 62 61 61 61 62 62 62 62 62 62 63 63 63 63 63 62 62 61 62 62 61 61 63 61 60 58 58 58 59 61 61
57 56 57 58 58 58 58 57 58 56 56 56 58 57 57 58 58 58 57 53 53 51 50 50 51 51 53 57 60 62 62 61 61 61 61 61 61 62 61 61 61 62 62 62 62 62 62 63 63 61 61 62 61 62 63 64 61 58 58 58 60 60 60
56 56 56 57 57 57 57 57 57 56 56 56 55 56 57 57 56 56 55 52 51 49 49 48 48 48 49 51 53 59 62 62 61 61 61 61 62 61 61 61 61 62 62 61 62 61 61 61 61 62 62 62 62 62 63 63 63 60 59 58 59 61 60
56 55 56 56 56 56 56 57 57 56 55 55 55 55 55 56 55 54 54 50 49 48 48 47 46 46 46 48 49 52 58 61 61 61 61 61 62 62 61 61 62 62 62 61 61 61 60 60 61 61 61 62 62 62 63 63 62 61 60 59 58 60 60
55 55 56 56 56 57 57 56 55 54 55 54 54 54 54 53 53 52 52 52 49 48 47 46 45 44 44 46 47 49 52 56 60 61 61 61 62 61 61 62 62 62 62 61 61 61 61 62 62 60 61 62 62 61 61 62 62 60 60 60 59 57 59
55 55 56 57 57 57 56 56 55 54 53 53 53 53 53 52 53 52 51 51 50 47 46 45 44 43 43 44 44 46 49 52 55 59 62 62 62 62 62 62 62 62 62 62 61 61 62 61 61 61 61 61 61 61 61 61 61 61 60 59 59 60 59
55 55 56 57 57 57 56 56 56 54 54 52 52 52 52 52 52 52 51 51 50 48 46 45 44 43 43 43 43 44 47 49 51 55 59 61 61 61 62 62 62 62 62 62 62 62 62 61 61 61 61 61 60 60 60 60 60 60 58 58 58 57 59
54 54 55 56 56 56 56 56 56 55 54 52 52 51 51 51 50 50 51 50 49 47 45 44 44 43 42 42 42 43 45 47 49 52 57 60 61 61 61 61 62 62 63 64 59 59 60 60 60 59 60 60 60 60 59 59 59 58 58 58 57 58 58
53 53 53 54 54 55 55 55 55 55 54 53 51 51 51 50 50 49 49 49 49 47 45 45 45 43 43 42 42 42 43 45 48 52 55 58 60 61 61 61 62 64 60 59 56 53 51 53 57 60 60 60 60 60 59 59 59 58 58 57 56 56 57
52 51 51 52 52 52 53 53 53 53 53 53 53 52 51 50 49 48 48 48 47 46 45 45 42 41 41 41 43 43 43 45 49 52 55 57 59 59 60 61 60 61 60 58 57 51 49 48 49 52 54 57 59 61 60 60 60 59 57 58 57 57 57
51 50 50 51 51 51 51 51 51 51 51 51 52 53 52 51 50 49 48 47 47 46 45 44 41 41 41 40 42 44 45 47 51 53 55 57 59 59 59 59 59 61 61 61 60 56 53 48 45 46 49 51 50 51 54 59 60 58 58 58 57 58 58
52 52 51 50 50 51 49 49 49 50 50 50 51 51 51 51 50 49 48 47 46 46 45 43 41 41 41 40 40 44 47 50 52 54 56 57 58 60 58 58 58 59 61 61 61 59 57 56 48 45 49 51 51 48 47 49 52 61 62 61 59 58 59
51 52 52 52 51 51 51 48 47 48 49 49 49 49 50 50 50 48 48 47 46 46 45 43 41 41 41 40 40 43 47 49 52 55 54 55 52 51 51 53 56 58 59 59 59 60 59 57 54 54 53 55 58 55 47 45 48 50 55 62 61 60 61
50 51 51 51 51 50 50 50 49 48 48 48 48 48 48 48 49 48 47 47 46 46 45 42 40 40 40 40 41 43 46 47 49 51 52 52 51 50 49 48 48 49 51 55 58 57 59 57 56 56 56 57 58 57 58 56 57 59 59 61 60 60 56
49 49 50 49 49 49 49 49 50 49 47 47 47 47 47 48 48 47 47 46 45 44 45 42 40 40 40 40 42 44 45 45 47 47 48 49 48 48 48 47 45 44 45 48 46 38 43 55 58 57 55 57 57 55 49 44 39 40 46 57 59 57 53
49 48 48 48 48 48 48 48 48 50 48 46 46 46 46 47 48 46 46 46 44 44 43 43 40 40 40 40 42 43 44 44 45 45 45 46 46 46 47 47 45 42 42 43 41 37 39 44 58 58 58 57 56 53 50 48 42 40 41 42 42 42 41
48 47 47 46 46 47 48 48 48 49 48 46 46 46 46 47 47 46 45 45 46 44 43 44 41 40 40 40 42 42 43 42 43 43 43 44 44 44 45 46 46 42 41 41 38 38 38 45 55 58 58 57 55 53 51 50 50 46 42 42 42 42 42
47 46 46 46 46 46 46 47 47 47 47 47 47 47 47 47 47 45 45 45 48 45 44 44 42 40 40 40 41 42 42 41 41 41 41 41 43 42 43 43 44 41 41 40 38 38 37 44 54 57 57 57 55 54 52 52 51 50 51 52 52 52 49
45 45 45 44 45 45 46 46 45 46 46 45 46 46 47 46 47 47 46 45 45 44 44 43 43 40 40 40 40 42 41 40 39 40 41 41 40 40 41 41 42 40 38 38 38 38 38 38 44 56 57 56 55 54 53 53 53 52 52 51 51 51 49
45 45 44 45 45 45 45 45 44 45 44 44 45 45 45 45 46 46 46 45 44 44 45 44 43 41 40 40 40 40 40 39 39 41 40 40 39 39 39 39 40 40 38 38 38 38 38 39 39 47 56 57 56 53 49 51 51 50 52 51 51 51 50
47 49 46 44 44 44 45 45 45 43 43 43 43 43 44 43 43 44 44 44 44 43 45 46 43 42 40 40 40 40 40 40 39 41 40 39 39 38 38 39 39 39 38 38 38 38 38 38 39 43 41 41 43 44 52 52 52 52 51 51 51 50 50
47 49 48 46 44 44 44 45 44 44 42 42 42 42 42 42 40 41 42 42 42 43 44 46 43 41 40 39 39 39 39 39 38 41 40 38 38 38 39 38 40 40 38 38 38 38 39 38 40 39 38 40 42 44 47 52 50 51 50 50 50 49 49
47 45 46 46 44 44 44 43 43 43 42 41 40 41 41 42 40 39 40 40 41 42 43 43 43 41 40 39 38 38 38 38 39 39 41 39 39 38 37 38 38 38 38 38 38 38 38 38 38 38 39 39 42 46 50 49 49 47 45 46 47 47 47

ECMWFFLT1_sfc_temp_072.txt.gz
Temp
63 63 64 65 66 66 65 65 65 65 65 65 64 64 65 65 66 65 65 65 64 65 64 63 63 63 63 64 64 64 64 63 62 61 61 61 60 61 63 61 60 62 62 60 60 59 56 55 57 61 62 62 62 63 63 63 63 63 63 63 64 64 63
64 64 64 65 65 65 65 66 66 67 66 64 64 64 65 66 66 66 65 64 64 64 65 63 63 64 63 63 63 63 63 63 63 63 61 61 61 60 61 61 61 60 61 61 61 60 56 55 56 58 59 61 62 62 62 63 64 64 64 64 65 64 64
63 63 63 63 63 63 63 64 65 65 66 66 66 65 65 66 65 65 64 64 64 64 65 64 64 63 64 63 64 63 64 63 63 62 61 61 62 62 62 61 59 59 59 59 59 59 58 58 55 56 59 59 58 60 62 62 63 64 64 63 64 65 65
61 61 61 61 61 61 61 62 63 63 64 64 64 64 64 65 65 66 65 64 64 64 64 64 63 63 63 63 64 64 63 62 62 63 62 62 62 62 62 61 60 60 59 58 59 59 59 57 56 57 59 60 60 60 61 64 64 65 64 63 63 64 65
60 60 59 59 60 59 59 59 61 62 62 62 62 63 64 64 65 64 65 65 64 64 63 64 64 64 64 64 64 63 63 63 63 63 62 62 62 62 62 62 61 62 61 60 60 60 59 58 58 57 58 60 60 61 62 62 64 64 63 63 65 65 66
60 59 58 59 59 59 59 59 60 60 60 60 61 63 64 64 64 64 64 64 64 64 64 63 63 64 64 64 64 63 63 63 63 63 62 62 62 61 61 62 62 62 61 62 61 60 60 60 59 57 59 60 58 59 61 61 61 63 63 63 64 64 65
59 59 58 58 59 59 59 58 59 60 60 60 61 62 63 64 64 65 65 65 65 64 64 63 63 63 64 63 63 63 63 63 63 63 63 63 63 63 63 62 62 62 62 63 62 61 60 59 58 58 58 58 59 58 59 60 62 60 61 63 63 64 65
60 60 59 59 59 59 59 57 57 58 58 59 60 62 63 63 63 63 63 62 62 62 63 63 63 63 63 63 63 63 64 64 63 63 63 63 62 62 63 62 62 62 62 62 62 61 61 61 60 59 59 56 56 57 57 60 60 61 62 63 64 64 64
59 59 59 59 60 60 59 58 56 56 57 58 59 60 61 61 60 60 60 59 60 60 61 62 62 62 62 62 63 63 63 64 63 62 62 62 62 63 62 62 62 62 63 62 62 62 62 62 61 61 60 59 56 54 56 57 58 59 63 61 63 64 64
58 59 58 59 59 59 58 57 57 58 59 58 58 60 60 60 59 59 58 57 57 56 58 60 61 62 62 62 62 62 62 63 62 62 62 62 63 63 62 62 62 62 62 62 62 62 62 61 61 61 61 59 59 56 55 55 56 57 60 63 60 62 64
58 59 59 58 59 58 57 57 56 56 57 58 58 59 59 60 59 58 56 55 55 55 54 55 55 57 59 61 62 62 62 63 62 62 62 62 62 62 61 61 62 62 62 62 61 62 62 62 61 61 61 61 60 58 57 55 56 59 59 62 63 62 63
56 58 59 59 58 57 56 56 56 56 57 58 58 58 58 58 58 56 55 54 54 54 53 52 52 53 54 56 58 60 62 63 62 62 62 62 62 62 61 61 62 62 62 61 62 62 62 62 62 61 61 61 60 60 59 58 55 57 61 59 62 65 63
56 57 58 58 57 56 56 56 56 55 56 57 57 57 57 57 57 54 53 52 52 52 51 51 51 51 51 52 53 54 57 61 62 62 62 62 62 62 61 61 62 62 62 62 62 62 61 62 63 62 61 61 61 61 60 57 56 57 59 61 62 63 65
54 55 56 57 57 56 56 56 56 56 56 55 56 56 55 55 56 54 52 51 50 50 49 49 49 49 49 49 50 52 53 55 59 61 62 62 62 62 61 61 61 62 63 62 61 62 62 62 62 62 62 61 60 60 59 58 57 57 57 60 61 62 64
53 53 53 53 55 56 56 55 55 55 55 55 55 55 54 54 54 54 51 50 49 49 48 48 48 47 47 46 47 49 51 52 54 59 61 61 61 62 61 61 61 61 62 62 62 62 62 62 61 61 61 61 60 59 61 60 59 58 57 56 59 61 61
53 53 53 53 53 54 55 55 54 53 54 54 55 54 54 53 52 53 51 50 48 48 48 47 47 46 45 45 46 47 48 50 52 54 58 60 61 61 61 60 61 61 61 61 61 61 61 61 62 61 61 61 61 60 61 61 59 57 58 57 60 60 60
53 54 54 55 54 54 53 52 52 51 52 53 53 53 54 53 52 52 50 49 48 47 46 46 46 45 45 44 44 45 46 48 50 52 54 58 61 61 60 60 60 60 60 60 60 60 60 61 60 60 60 60 60 61 61 61 61 60 59 59 58 60 60
53 54 54 55 55 55 54 52 51 51 51 50 51 51 51 52 51 51 49 48 47 47 46 46 45 45 44 45 44 44 45 46 48 51 52 54 59 61 61 60 60 60 60 59 60 60 60 60 61 60 60 60 60 61 61 61 61 60 58 58 58 59 60
52 52 52 52 54 55 55 54 52 51 51 50 50 50 49 49 50 50 50 49 48 47 47 46 45 44 44 44 44 44 44 45 47 49 51 53 56 60 61 61 61 61 60 60 60 60 60 60 60 60 60 60 61 61 60 60 60 59 59 59 58 57 58
50 51 51 51 52 52 52 52 52 51 52 52 50 49 48 48 49 49 49 48 47 47 46 46 45 44 43 44 44 44 44 45 46 48 51 53 55 59 61 61 61 61 61 61 60 60 60 60 60 60 60 60 60 60 59 60 60 59 58 58 58 58 58
49 50 50 50 50 51 51 51 51 51 51 50 51 50 48 47 48 49 49 48 47 46 45 45 44 43 43 44 44 44 45 45 46 48 50 53 56 58 60 61 61 61 61 61 61 61 61 60 60 60 60 60 59 59 59 59 59 58 58 57 57 56 56
49 49 49 49 49 49 49 50 50 50 50 50 51 50 49 48 47 47 48 48 47 46 44 43 43 43 42 43 44 45 46 46 47 48 51 53 56 58 59 60 60 61 62 63 58 58 59 59 60 59 60 60 59 59 59 58 58 58 58 58 57 57 56
48 48 49 48 47 48 48 48 49 49 49 49 49 49 48 48 47 46 46 46 45 44 43 43 44 43 43 43 43 45 46 48 49 51 53 53 52 53 54 57 60 62 58 56 55 52 51 53 56 60 60 60 59 59 58 58 58 58 58 57 56 56 55
49 48 48 48 47 47 47 47 47 47 47 47 47 48 47 46 46 45 45 44 44 44 43 44 42 40 41 42 44 44 45 46 49 50 50 49 49 50 50 50 50 53 57 58 57 53 49 48 49 50 52 55 58 60 58 57 58 58 57 57 57 57 57
48 48 48 47 47 47 46 45 46 46 46 46 46 46 46 45 45 45 44 44 43 44 43 43 40 41 40 40 43 44 45 45 47 47 48 47 47 47 48 48 49 50 50 51 54 51 52 50 46 46 46 47 49 50 53 58 58 58 58 57 56 56 57
47 47 47 47 47 47 45 44 44 44 44 45 44 45 44 44 44 44 44 43 43 43 43 42 40 41 40 40 41 43 44 46 46 46 46 46 46 46 46 46 46 46 47 50 50 47 46 49 50 46 46 46 46 46 46 47 51 60 60 58 57 57 57
46 46 46 46 46 46 45 44 42 42 43 43 43 43 43 43 43 43 43 42 42 43 43 42 40 40 40 40 40 42 44 45 45 46 46 45 45 44 45 45 44 43 44 46 46 44 43 44 48 53 53 53 55 53 47 47 47 49 54 60 59 58 60
44 44 44 45 45 45 44 44 43 43 43 42 42 42 42 42 43 43 42 42 42 42 43 42 40 40 40 40 40 42 44 45 45 44 45 45 45 44 44 45 44 42 43 43 45 42 41 42 44 50 55 56 56 57 55 55 55 55 56 59 60 60 60
42 42 43 43 44 44 43 43 42 43 43 42 42 41 42 43 42 41 42 42 42 41 42 41 40 40 39 39 41 42 43 43 44 44 44 44 44 44 44 45 44 42 41 42 42 39 40 40 44 50 55 56 56 56 56 51 45 47 52 58 60 60 59
42 42 42 42 42 42 42 42 42 43 41 41 41 42 41 42 42 42 42 42 41 41 41 42 40 40 39 39 41 41 41 42 42 42 42 43 43 43 43 45 44 41 40 41 40 38 38 39 45 50 54 56 56 55 55 49 43 41 41 39 44 49 49
42 41 40 41 41 41 41 41 42 43 41 40 40 40 41 42 43 42 42 41 43 40 40 42 41 39 39 39 41 40 40 40 40 41 41 42 42 42 43 45 45 42 40 40 39 38 38 40 43 46 50 55 56 55 54 50 50 45 40 41 40 40 41
41 41 41 41 41 40 40 41 40 40 40 40 40 39 42 40 41 42 42 41 45 41 40 42 41 39 39 39 40 39 40 39 39 39 41 41 41 40 41 42 43 41 40 39 38 38 38 40 41 44 46 50 54 55 55 50 49 48 49 50 50 50 48
41 42 41 40 41 41 40 39 39 40 40 40 39 38 38 39 39 40 41 41 41 40 40 40 41 40 39 39 39 40 40 39 37 38 40 40 39 39 39 39 40 39 38 38 38 38 38 38 40 43 45 47 51 55 53 51 50 50 51 50 49 49 48
42 40 40 41 41 41 40 39 39 39 39 39 38 38 38 38 38 39 39 40 40 39 41 41 40 40 39 39 39 39 39 39 38 38 39 39 38 38 37 37 38 39 38 37 38 38 38 38 39 42 41 41 44 47 48 51 49 49 50 49 48 48 47
42 44 41 41 40 40 39 40 39 38 38 37 37 38 37 38 36 38 38 39 40 39 41 43 40 41 39 39 39 39 38 38 38 38 38 38 38 37 37 37 37 38 37 37 38 38 38 38 38 41 39 37 38 37 49 52 51 50 49 48 47 47 47
42 44 42 41 40 39 38 39 38 38 37 37 37 37 37 37 36 37 38 39 39 39 39 41 41 40 40 39 39 38 38 37 37 38 37 37 37 37 38 37 38 39 37 37 37 38 38 38 39 38 38 38 38 40 47 50 49 49 47 47 46 46 45
40 40 40 40 40 39 38 38 38 38 36 36 35 36 36 36 37 37 37 37 38 38 39 38 40 40 40 39 39 38 38 37 37 37 37 36 37 37 37 37 38 37 37 37 37 37 38 38 37 37 38 39 39 41 47 48 47 46 44 44 44 45 45

ECMWFFLT1_sfc_temp_075.txt.gz
Temp
61 60 61 61 61 62 61 61 62 62 63 63 63 63 64 64 64 64 63 62 62 63 62 62 62 62 62 62 62 63 63 63 62 61 61 61 60 61 63 62 62 62 62 61 61 58 57 55 57 61 63 63 62 63 64 64 64 64 64 64 65 65 64
62 62 62 62 62 61 60 61 61 62 62 62 62 63 63 63 64 63 64 63 63 63 64 63 63 63 62 62 62 63 63 63 63 63 62 61 61 61 61 61 61 61 61 61 61 60 57 55 56 57 58 61 61 62 62 63 64 64 64 64 65 65 65
61 61 61 60 60 61 60 60 61 61 61 61 62 62 62 63 63 63 63 63 63 63 64 64 64 64 63 63 64 63 64 63 63 63 62 62 62 62 62 61 60 60 60 59 59 59 58 58 56 56 58 58 57 60 62 62 62 63 64 64 64 65 65
60 59 59 58 59 59 59 59 60 61 61 61 61 61 61 62 62 63 63 63 63 63 63 63 63 63 64 64 64 64 64 63 63 63 62 62 62 62 62 61 60 60 59 58 59 59 58 57 56 56 58 59 59 58 60 62 62 63 63 63 63 64 65
59 59 58 57 58 58 58 58 59 60 60 61 61 61 61 61 61 61 62 61 60 60 60 61 62 62 63 64 64 64 63 64 64 63 62 62 62 62 62 62 61 62 61 60 61 60 59 59 58 57 57 59 59 59 61 61 62 62 63 63 63 64 65
59 58 58 58 58 58 57 57 57 57 59 59 60 60 61 60 60 59 59 58 57 58 59 60 60 62 62 62 63 63 63 63 63 63 62 62 63 62 61 62 62 62 61 62 62 61 61 60 59 57 58 59 57 58 60 61 60 62 63 63 63 63 64
59 58 58 58 58 58 57 56 56 57 57 58 59 59 60 60 59 58 58 57 57 57 57 58 58 59 60 61 62 62 62 63 63 63 63 63 63 63 63 62 62 62 62 62 62 61 60 59 58 58 58 58 58 58 59 60 61 60 62 63 63 63 63
57 56 56 58 57 57 56 56 56 57 57 58 58 59 60 59 57 57 57 56 55 54 54 54 54 55 56 57 60 62 62 63 63 63 63 63 62 62 62 62 62 62 62 62 62 62 62 60 60 59 58 56 56 57 56 59 60 60 61 61 63 63 63
56 55 54 56 56 56 56 55 55 56 56 57 58 59 59 58 56 55 56 55 55 54 53 53 52 52 52 54 56 58 59 62 62 62 62 62 62 62 62 62 62 61 63 62 62 62 62 62 60 60 59 58 56 54 56 56 58 59 62 60 62 63 63
56 55 54 54 54 56 55 55 54 55 56 57 56 58 57 57 55 55 53 53 53 53 53 52 51 51 50 51 52 54 55 56 57 59 61 62 62 62 62 62 61 62 62 63 63 62 62 62 61 61 60 59 58 56 54 54 56 57 59 62 59 61 63
55 55 55 55 55 54 53 53 53 53 54 56 56 56 57 56 54 54 52 51 51 51 51 51 50 50 49 49 50 51 53 54 54 56 58 61 62 62 62 62 62 61 62 62 62 62 62 62 61 61 61 60 60 57 57 55 56 58 58 61 62 61 62
54 55 55 56 54 53 52 53 53 54 54 54 54 54 54 54 54 52 51 50 50 49 49 49 49 49 48 48 49 48 50 51 51 53 55 58 60 62 61 61 62 61 62 62 62 62 62 62 61 61 61 61 60 59 58 57 54 57 60 58 61 64 62
53 54 55 55 54 52 52 52 52 52 53 54 54 54 53 52 53 52 50 50 49 48 48 48 48 48 47 47 47 46 48 49 49 50 52 55 57 60 61 61 62 61 62 62 62 62 62 62 62 61 61 60 60 59 59 57 56 56 58 61 61 62 63
51 52 53 54 53 52 51 52 51 52 53 52 53 52 52 52 52 51 50 49 48 48 47 47 47 46 46 45 46 45 46 47 47 48 50 52 55 56 58 60 61 62 63 61 61 62 61 61 61 61 61 60 59 60 59 58 56 56 58 59 60 61 63
51 51 50 50 52 51 50 50 50 50 49 50 51 51 51 51 51 50 49 48 48 47 47 47 46 45 44 44 44 45 45 45 45 47 48 50 52 54 55 56 60 62 62 61 61 61 61 61 61 61 61 60 60 59 60 59 57 57 57 57 58 60 61
52 52 52 51 50 50 50 50 50 49 48 48 49 49 49 50 50 49 47 47 46 46 45 45 45 45 44 44 44 44 45 45 45 45 46 48 50 53 54 55 57 60 61 60 60 61 61 61 61 61 61 61 60 60 60 61 58 56 57 57 59 59 60
50 51 51 51 51 50 49 49 50 49 48 48 47 48 49 49 49 48 46 46 45 44 44 44 44 44 44 44 44 44 45 46 46 46 47 48 49 51 53 54 57 60 60 60 60 60 60 60 60 60 60 61 60 60 60 60 60 59 58 58 58 59 59
48 49 49 49 49 49 49 48 49 49 48 48 47 47 47 48 48 47 46 45 44 44 44 44 43 43 43 44 45 45 46 46 47 48 48 49 51 52 54 55 57 59 60 59 60 60 60 60 60 60 60 60 60 60 60 59 59 59 57 56 58 58 59
47 48 49 48 48 48 48 48 47 48 48 47 47 46 46 46 47 46 46 45 44 44 44 44 43 42 43 43 44 45 46 47 48 49 50 51 52 53 53 52 53 56 58 59 59 60 60 60 60 60 59 59 60 60 59 59 59 59 58 58 58 57 57
46 46 47 47 47 47 47 47 47 47 48 47 46 45 45 45 46 45 45 45 44 44 43 43 43 42 42 43 44 45 45 46 48 49 50 51 51 51 51 51 51 51 52 52 54 57 59 60 60 59 60 59 60 59 59 59 59 59 58 58 58 59 58
46 46 46 46 45 45 46 46 46 46 47 46 45 45 44 44 44 45 44 44 44 44 43 43 43 42 42 42 43 44 45 46 47 48 48 49 50 50 50 50 50 50 51 51 50 50 48 49 55 59 60 60 59 59 59 59 59 59 58 57 57 57 58
45 46 45 45 45 44 44 44 45 45 44 45 46 45 44 44 43 43 43 43 43 43 43 42 43 42 41 41 42 43 44 45 46 46 47 47 48 48 48 48 48 49 51 51 50 49 47 47 46 48 55 59 59 58 58 58 58 58 58 57 57 57 57
45 44 44 44 43 44 43 44 44 44 44 43 43 44 43 43 43 42 42 42 43 43 42 42 44 42 42 42 42 42 43 45 46 46 46 46 46 47 47 47 48 51 49 49 48 46 44 44 45 45 45 49 56 58 58 58 58 58 58 57 57 56 55
44 44 43 43 42 43 43 43 43 43 43 42 42 43 43 42 42 42 42 41 41 42 42 43 41 40 40 41 42 42 42 43 45 45 45 45 44 45 45 46 47 48 47 47 47 45 43 43 42 42 43 45 47 52 57 57 58 58 57 57 57 56 56
43 43 43 43 42 42 42 42 42 41 41 41 42 42 41 41 41 41 42 41 41 42 42 43 39 40 40 39 42 42 42 42 43 43 44 44 44 44 44 44 46 46 45 46 46 45 44 43 42 42 42 42 44 44 46 54 58 57 57 57 57 56 56
43 42 42 42 42 42 42 41 41 41 41 42 41 41 40 40 40 41 41 40 40 41 41 42 40 40 39 39 39 41 41 42 42 42 43 43 44 44 43 43 44 45 44 46 46 43 42 42 42 42 43 45 47 46 42 42 46 57 59 58 57 57 57
42 41 41 41 41 41 41 40 39 40 40 40 40 40 40 40 40 40 40 40 39 40 40 42 40 39 39 39 39 40 41 42 42 43 43 43 43 43 42 42 42 42 42 42 42 42 41 40 40 42 44 47 51 53 49 44 44 44 49 58 58 57 59
41 40 40 41 41 40 39 38 39 39 39 39 38 39 38 38 40 40 39 39 39 39 40 41 40 39 39 39 39 41 40 41 42 43 43 43 42 42 42 43 43 42 41 41 42 41 39 39 40 41 44 48 51 53 56 56 54 53 53 56 59 59 60
38 38 39 39 39 39 38 37 37 38 39 37 38 38 39 40 39 38 38 38 38 37 39 41 40 39 39 38 40 41 40 40 40 42 42 43 43 42 42 43 42 41 41 40 41 39 39 40 40 41 43 46 48 51 54 55 50 51 55 58 59 61 60
39 37 37 37 36 36 37 38 37 39 37 37 36 37 37 38 38 37 38 38 37 37 37 40 40 39 39 39 40 40 40 40 40 40 41 42 43 42 42 43 42 41 40 40 40 37 38 39 40 40 41 43 46 48 51 53 44 43 43 43 44 44 43
38 38 36 36 36 36 37 37 37 38 35 36 37 36 38 37 37 37 37 36 39 37 36 40 40 39 39 39 40 40 40 39 39 39 40 41 42 41 41 43 44 41 39 39 38 37 38 39 39 39 40 41 43 45 48 52 50 47 41 42 43 43 44
37 37 37 36 37 36 36 37 36 36 37 36 37 36 39 36 37 38 37 37 42 38 36 40 41 39 39 39 40 40 40 39 38 38 38 39 40 39 40 41 42 41 40 39 37 37 37 39 38 39 40 40 40 42 45 50 51 50 50 50 49 49 49
38 37 36 36 36 37 38 35 36 36 36 36 36 35 35 36 35 36 37 36 37 37 37 38 40 39 39 39 39 39 39 38 36 37 38 39 38 38 38 38 39 39 38 37 37 37 37 38 38 39 40 38 38 39 43 45 46 50 51 51 50 49 48
37 38 37 37 38 37 35 35 35 35 35 36 35 35 35 35 35 35 36 36 36 36 39 39 40 40 39 39 39 39 37 38 37 37 37 37 37 36 37 37 37 39 38 37 37 37 38 38 38 39 39 37 38 39 40 40 44 47 51 49 48 47 47
39 40 39 37 36 36 35 35 35 34 34 35 34 35 34 35 34 34 35 36 37 36 39 42 39 40 39 39 39 39 37 37 37 37 36 36 36 36 36 37 37 38 37 37 37 37 37 38 38 39 37 37 38 38 43 45 46 49 49 48 47 47 46
40 41 39 37 35 35 35 34 34 35 34 34 34 34 34 34 34 35 36 36 36 37 37 39 40 39 39 39 39 39 38 38 38 38 35 35 35 36 36 36 37 39 37 37 37 37 37 37 38 37 37 37 38 39 42 44 46 47 46 46 46 45 45
38 37 38 37 36 35 34 34 35 36 33 33 32 34 33 33 34 34 34 35 36 36 37 36 39 40 39 39 39 39 38 38 38 37 37 35 35 35 35 36 37 37 37 38 37 37 37 37 37 37 37 37 38 39 41 41 42 43 42 42 42 42 42

ECMWFFLT1_sfc_temp_078.txt.gz
Temp
58 57 58 59 59 61 61 61 61 61 61 62 62 62 62 62 63 63 63 63 63 63 64 63 63 63 63 64 64 64 64 63 62 61 61 62 61 61 63 62 62 63 63 62 62 59 57 56 58 62 63 63 63 63 64 64 64 64 64 65 65 65 64
59 58 59 60 59 60 59 59 59 60 60 61 62 61 61 61 62 61 61 60 60 61 62 62 62 62 62 62 63 63 63 63 63 63 62 62 62 61 61 61 62 61 62 62 62 61 57 56 57 58 59 62 63 63 63 64 64 65 65 65 65 65 65
57 57 57 57 57 58 58 58 59 59 59 60 61 62 60 61 60 60 58 58 58 59 60 60 61 61 61 61 62 62 62 62 63 64 62 63 63 63 62 62 60 60 60 60 60 60 60 59 56 57 59 59 58 61 63 63 64 64 65 64 64 65 65
57 57 56 56 56 56 55 56 57 58 59 60 61 60 59 59 59 59 57 57 56 56 57 57 57 57 59 60 62 62 62 62 62 62 63 63 63 62 62 62 61 60 59 58 59 60 59 58 57 57 59 60 60 59 62 64 64 64 64 64 64 64 65
58 57 56 55 56 55 55 55 55 56 57 58 60 59 57 57 57 57 57 55 55 53 53 53 54 54 56 57 59 60 61 62 62 62 62 62 62 62 62 62 61 62 61 60 61 60 59 59 58 58 58 60 60 60 63 63 64 64 63 63 64 64 65
56 56 56 55 55 55 55 55 55 55 56 57 58 57 56 56 56 55 55 54 53 53 53 52 52 53 53 53 55 58 59 60 61 61 61 61 62 61 61 62 62 62 61 62 61 60 61 61 59 57 59 60 58 59 62 62 61 63 64 63 64 64 64
55 55 55 54 55 55 55 54 55 55 55 55 56 56 55 56 55 55 54 53 54 54 53 52 52 52 52 52 53 54 55 57 58 58 59 60 61 62 63 61 62 61 62 63 62 61 60 59 58 58 58 59 60 59 61 61 63 60 61 63 64 65 64
53 53 53 55 54 54 54 54 54 55 55 55 56 56 55 55 54 53 53 52 51 51 52 51 51 51 51 51 52 52 53 55 55 55 56 58 59 60 61 62 61 61 61 62 62 62 62 61 60 59 58 56 56 58 57 60 61 60 62 64 65 64 64
54 53 53 54 54 54 54 54 53 54 55 55 56 56 55 54 53 52 52 51 51 51 50 51 50 50 50 49 49 50 50 53 52 53 54 55 57 58 59 61 61 61 62 62 62 62 62 62 62 61 60 58 56 54 57 56 58 59 63 61 63 65 64
52 52 51 51 52 53 53 53 53 53 54 54 54 55 54 55 53 52 51 50 50 50 50 50 49 49 48 48 47 47 48 49 49 50 51 52 53 55 56 58 59 60 61 63 62 62 62 62 62 62 61 59 58 56 54 54 56 57 61 63 60 62 65
52 52 51 51 51 51 51 51 52 52 52 54 54 53 53 53 51 51 50 49 49 49 48 48 48 48 47 46 47 47 47 47 47 48 49 50 51 53 55 56 57 57 60 61 62 62 62 62 61 62 61 61 60 57 57 55 56 59 59 62 63 62 63
52 52 52 52 51 50 49 50 50 50 50 52 52 52 51 51 50 49 49 48 48 47 47 47 47 46 47 45 46 46 47 47 47 47 48 49 51 52 52 53 55 55 57 59 61 62 62 62 62 62 61 62 61 60 58 57 55 58 62 60 62 65 63
52 52 51 50 49 49 49 49 48 48 48 49 49 50 50 49 48 47 47 47 46 46 46 46 46 45 46 46 46 46 47 47 47 47 48 50 51 51 52 52 54 54 56 57 59 61 61 62 62 61 62 61 61 61 60 57 56 56 60 61 61 63 63
49 50 50 50 49 49 49 49 48 48 49 48 48 48 48 48 48 47 47 47 46 45 45 45 45 45 45 45 46 47 47 47 47 47 48 49 51 51 52 52 54 56 57 57 58 60 61 62 62 61 61 61 60 60 60 58 56 56 59 60 61 61 63
50 49 49 49 49 49 48 48 48 48 47 47 48 48 48 48 47 47 46 46 45 45 45 45 45 44 44 44 45 46 46 47 47 48 48 49 50 51 52 52 54 54 55 55 57 58 60 61 61 61 61 60 60 60 61 59 58 57 57 58 59 61 61
49 48 48 48 47 48 48 48 49 47 47 47 48 48 47 47 47 46 46 45 45 45 44 44 44 44 43 43 44 45 46 46 47 47 48 49 50 51 51 51 52 52 53 52 53 54 56 57 59 60 61 61 60 60 60 60 59 57 57 57 59 59 60
47 47 47 47 47 47 47 48 49 47 47 47 46 47 47 47 46 46 45 45 44 44 44 44 44 43 43 43 44 44 45 46 47 48 48 49 50 50 49 49 50 50 51 51 51 51 52 52 51 54 58 60 60 60 60 60 60 59 58 57 58 59 60
47 46 46 46 46 47 47 47 48 47 46 46 46 46 46 47 46 45 44 44 44 44 44 44 43 43 43 43 44 44 45 46 47 48 48 49 50 49 49 48 48 49 50 49 49 49 49 48 49 50 51 55 59 60 60 60 59 59 58 57 57 59 60
46 46 46 46 46 46 46 46 46 47 47 45 45 45 45 45 46 44 44 44 44 44 44 44 43 43 42 43 43 44 44 45 46 47 48 48 48 49 48 48 48 48 48 48 47 48 48 47 47 46 48 50 53 57 59 59 59 59 58 58 58 57 58
45 45 45 45 45 45 45 45 45 45 46 45 44 44 44 44 45 44 44 44 44 44 43 43 43 42 42 42 42 43 43 44 45 46 46 47 48 48 48 48 47 48 48 48 46 46 46 45 45 45 46 47 48 49 53 58 59 58 58 57 57 58 57
45 45 45 45 44 44 44 44 44 44 45 44 44 44 43 43 44 44 44 44 44 44 43 43 43 42 42 42 42 42 43 43 44 44 45 46 46 47 47 47 47 48 48 48 47 46 45 43 44 43 45 45 46 46 48 53 57 58 57 57 57 57 58
44 44 44 44 44 43 43 43 43 44 44 43 44 44 44 43 43 43 43 43 43 43 43 42 43 42 41 41 42 42 42 43 43 44 44 45 45 46 46 46 46 47 49 50 48 47 46 45 43 41 43 44 44 44 45 48 53 57 57 57 57 58 57
43 43 43 42 42 43 43 43 43 43 43 43 43 44 43 43 42 42 42 42 42 42 42 43 43 42 42 41 41 42 42 43 43 44 44 43 44 45 45 45 46 48 48 47 47 45 43 43 44 43 42 42 42 43 44 45 48 54 57 57 57 57 56
43 42 42 42 42 42 42 42 42 42 42 42 42 42 42 41 41 41 41 41 41 41 42 44 41 40 40 40 42 42 41 42 43 44 44 43 43 43 44 44 45 46 47 46 46 44 42 42 41 41 42 43 44 43 43 44 47 51 54 57 57 57 56
42 41 41 41 41 41 41 41 41 41 41 41 41 41 40 40 40 40 41 40 40 41 41 43 39 40 40 39 41 42 42 41 42 43 43 43 43 43 43 43 44 44 45 45 45 43 43 42 41 40 40 41 41 42 43 45 47 48 51 54 56 57 57
41 41 40 40 40 40 40 40 40 40 40 41 40 40 39 39 39 40 40 39 40 41 41 42 40 40 39 39 39 41 42 42 42 42 42 42 43 43 42 42 42 43 44 45 44 43 42 41 41 41 41 42 43 44 42 42 43 48 50 51 53 56 57
40 40 40 40 40 40 39 39 38 39 40 39 39 39 39 38 39 39 39 39 38 40 40 42 40 40 39 39 39 40 42 42 42 42 42 42 42 42 42 41 41 41 42 42 42 42 41 40 40 40 41 43 44 45 44 44 44 45 47 50 52 54 58
40 39 39 39 39 39 38 38 39 39 38 38 37 37 37 37 39 39 38 38 39 39 40 41 39 39 39 39 39 41 41 42 42 42 42 42 42 42 41 41 41 41 40 40 42 41 40 39 39 40 40 41 43 45 46 47 48 49 50 52 53 53 56
38 38 38 38 38 38 38 37 37 39 39 37 38 38 38 39 38 37 38 38 38 38 39 40 39 39 39 38 40 42 41 41 41 41 41 41 41 42 42 42 41 40 40 40 41 39 39 40 39 39 39 40 42 43 45 47 45 45 47 48 50 53 56
39 38 37 37 37 37 37 38 37 39 37 37 37 37 37 37 37 37 38 38 38 38 38 40 39 39 39 39 40 41 41 41 41 40 40 41 41 41 41 42 42 40 40 40 40 37 38 39 39 38 38 39 40 41 42 45 44 44 43 43 43 42 42
38 38 36 37 36 36 37 37 37 38 36 36 37 36 37 37 37 37 37 37 39 38 37 40 40 39 39 39 40 40 41 40 40 39 39 40 41 41 41 43 43 41 40 40 39 37 38 39 39 38 38 38 38 38 40 42 43 43 43 43 44 43 42
37 36 37 37 37 37 37 37 37 36 36 36 37 36 38 36 37 37 37 38 41 38 38 40 40 39 39 39 40 41 41 40 39 38 39 39 40 40 40 41 42 41 41 39 37 38 37 39 38 38 38 37 36 37 38 40 40 41 43 45 46 50 49
37 36 36 36 36 36 37 36 36 36 36 36 36 36 36 37 36 37 37 37 37 37 38 39 41 39 39 39 39 41 41 40 37 37 38 39 38 39 39 40 40 39 38 38 37 37 37 38 38 39 39 36 36 35 39 39 42 44 45 45 45 48 49
38 37 36 37 38 37 35 35 35 35 35 35 35 36 35 36 36 36 37 37 38 38 39 40 40 39 39 39 39 39 40 40 38 38 38 38 37 37 37 38 39 40 38 38 38 38 38 38 38 39 38 36 37 38 39 41 43 45 46 47 48 47 47
37 39 38 37 35 36 35 35 36 35 34 35 35 35 35 36 35 36 37 37 38 37 39 40 39 40 39 39 39 39 39 39 39 38 37 38 37 37 37 38 39 39 38 38 38 38 38 38 38 39 37 37 37 37 39 42 44 44 44 44 44 44 44
39 40 39 36 35 36 35 35 35 35 34 35 34 35 35 35 35 35 36 37 37 37 37 39 39 39 39 38 38 39 38 38 38 39 37 36 36 37 39 39 40 40 38 38 38 38 38 38 39 38 37 37 37 37 39 41 42 43 42 42 42 41 42
37 37 38 36 36 35 36 35 36 35 34 34 34 35 35 34 34 35 35 36 37 37 38 37 38 39 39 38 38 38 38 37 38 39 39 38 38 38 38 39 40 38 38 38 38 38 38 38 37 37 37 37 37 38 39 40 40 41 41 40 40 40 40

ECMWFFLT1_sfc_temp_084.txt.gz
Temp
69 67 67 67 68 68 68 68 67 66 67 68 68 68 68 67 67 66 67 67 67 67 67 68 67 68 69 71 71 71 71 70 69 67 67 70 68 70 73 72 73 74 74 72 71 66 65 64 69 77 79 78 78 78 78 78 78 78 77 78 79 80 79
68 68 68 68 67 67 66 67 67 65 66 67 68 68 68 67 66 66 67 67 67 67 70 70 69 69 68 68 69 69 68 67 67 68 67 66 67 67 68 69 71 71 72 73 73 72 68 66 68 72 72 77 77 78 78 79 79 79 79 79 80 79 79
66 66 66 65 65 67 65 65 65 64 66 67 67 67 66 67 66 68 68 66 65 66 68 67 67 67 67 67 67 67 67 66 67 66 64 65 66 67 67 68 68 68 69 70 71 72 71 71 67 68 71 70 70 75 78 78 79 80 79 79 78 80 80
64 64 64 64 65 65 64 64 63 63 66 66 66 64 64 65 65 66 65 66 67 66 66 67 66 66 66 66 67 66 66 64 64 63 63 65 66 65 65 66 65 67 66 65 67 68 68 66 67 68 71 76 74 72 76 80 79 79 80 80 79 79 79
64 64 63 62 64 64 64 63 64 64 63 64 64 64 63 64 65 65 65 66 66 65 65 65 65 65 65 68 67 64 63 63 62 61 61 61 61 62 63 64 64 66 66 66 68 68 66 67 66 66 69 72 74 74 78 77 80 79 80 79 80 80 80
65 65 64 63 64 64 64 63 63 62 61 61 63 63 63 63 65 64 63 64 64 64 64 64 63 63 64 65 64 62 62 61 60 59 59 59 60 59 60 63 64 64 64 66 67 67 68 68 68 66 69 70 67 69 75 77 76 82 82 81 81 81 82
64 63 62 62 63 63 63 61 61 60 60 61 63 63 65 64 64 64 63 63 64 64 63 63 63 63 63 64 63 60 59 59 59 58 58 58 59 60 60 60 61 62 64 65 64 65 64 63 64 64 64 67 68 68 72 75 80 78 80 84 84 84 83
63 62 62 63 62 62 62 61 61 61 62 63 64 64 63 63 63 64 63 63 63 62 62 62 63 64 63 63 62 60 60 59 59 59 59 58 58 58 59 59 59 60 61 62 62 62 63 63 62 62 62 60 61 65 67 73 75 77 78 83 85 85 84
64 63 63 62 62 62 62 62 60 60 62 63 63 63 62 63 62 63 63 62 62 62 62 62 62 63 62 62 62 62 61 62 61 60 59 60 59 59 59 59 59 60 61 61 61 60 61 61 61 60 59 58 53 53 61 64 68 72 79 77 82 83 82
62 61 61 60 61 61 61 61 61 62 63 63 62 63 62 62 62 62 62 62 62 62 62 62 62 62 62 62 62 62 61 63 62 61 61 60 60 60 60 59 60 61 61 61 61 60 60 60 60 60 59 56 56 52 51 55 61 65 72 77 73 78 83
62 62 62 61 62 62 62 62 63 63 62 62 62 62 62 62 62 62 62 62 62 62 61 62 62 62 62 62 62 62 62 62 62 62 62 62 62 62 62 62 62 62 62 61 60 60 60 59 59 59 59 61 59 54 52 50 53 62 67 71 74 71 74
63 62 62 62 62 63 62 62 62 62 62 62 62 62 62 62 62 61 62 62 62 62 61 61 61 61 62 61 61 62 62 62 62 62 62 62 62 62 61 61 62 62 62 60 61 61 61 61 59 59 59 61 60 58 55 53 49 56 62 63 68 72 72
64 63 63 63 62 62 62 62 61 60 61 62 62 62 62 62 62 61 61 61 61 61 61 61 61 61 61 61 61 61 61 62 62 61 61 62 62 61 61 61 62 62 60 59 59 60 61 61 60 59 59 58 58 59 57 54 50 52 61 63 65 69 71
62 62 61 61 61 60 60 61 61 61 62 61 62 61 61 61 62 61 62 61 62 61 61 60 60 61 60 60 60 60 61 61 60 61 61 61 62 61 60 61 62 61 61 58 58 59 60 60 60 60 60 60 58 58 56 53 49 51 57 62 64 66 70
61 61 60 60 60 61 61 60 61 61 60 61 62 62 61 61 61 61 61 62 61 62 61 61 60 60 60 59 59 59 59 60 60 60 60 60 60 60 59 59 60 60 60 58 57 58 59 59 58 57 58 58 58 57 57 52 50 50 51 57 60 65 67
60 60 59 60 59 60 60 60 62 60 61 61 61 61 60 61 61 62 61 60 61 60 60 60 60 59 59 59 59 59 59 59 59 59 59 59 60 60 59 58 59 59 58 57 56 56 57 56 56 56 56 57 56 57 57 56 53 49 50 52 58 61 63
59 59 59 59 59 59 60 60 61 60 61 61 60 60 61 62 61 60 60 61 60 60 59 59 59 59 59 59 59 59 59 59 59 59 58 59 59 59 59 58 58 58 57 55 55 54 55 55 54 54 54 54 55 54 55 55 55 52 52 51 55 59 62
59 58 58 59 58 59 60 60 60 61 60 60 61 61 60 61 61 60 59 60 60 59 58 58 58 58 58 59 59 59 59 59 59 59 58 59 58 58 58 58 58 59 56 53 53 52 52 51 51 52 52 53 53 53 53 54 54 55 54 52 54 58 60
58 58 58 58 58 59 59 60 60 60 61 60 60 60 60 60 60 60 61 60 60 59 59 57 57 57 58 59 59 59 59 59 59 59 59 59 59 59 58 58 58 58 55 52 51 50 50 48 49 49 49 50 51 52 51 52 53 54 54 54 55 55 58
58 58 58 58 59 59 59 59 60 59 60 59 59 59 60 60 59 59 60 59 58 58 57 56 55 55 57 58 58 59 58 58 59 58 59 59 59 59 59 59 58 56 54 52 50 48 48 48 48 48 49 49 50 50 50 51 52 53 54 54 55 57 57
59 59 59 59 59 59 59 59 59 59 59 58 58 59 59 59 59 60 59 59 58 57 56 55 54 54 55 56 56 58 58 58 58 58 58 59 59 59 59 58 57 56 54 52 50 49 49 48 48 47 48 49 49 48 49 50 50 51 51 52 53 54 56
60 60 60 59 59 58 58 58 59 59 59 58 58 59 59 59 59 59 59 58 57 56 54 53 51 49 51 53 55 56 58 58 57 57 57 58 58 59 59 57 56 54 52 51 48 47 47 47 47 46 47 48 47 47 47 48 48 49 50 51 51 54 54
60 60 59 59 59 59 59 58 58 58 58 58 58 59 59 58 59 58 58 58 57 55 53 52 45 41 43 49 52 55 58 58 58 57 57 56 57 57 57 56 55 52 50 49 48 46 45 45 45 47 47 47 47 46 45 45 46 48 48 48 49 50 50
61 60 60 59 59 59 59 58 58 57 57 57 57 58 58 58 57 58 58 57 56 55 53 49 40 40 40 41 48 54 57 57 58 58 57 56 55 55 55 55 54 53 52 50 50 46 45 44 43 43 43 44 45 46 46 44 45 47 47 47 48 48 49
60 60 60 60 60 60 59 58 57 57 57 56 57 57 56 57 57 57 57 58 56 54 53 43 39 40 40 40 42 50 58 57 57 57 57 56 55 54 53 52 52 52 52 51 51 51 49 45 44 43 43 43 43 43 43 46 46 45 45 45 45 46 47
60 60 60 60 60 59 59 58 57 56 56 56 57 56 56 56 56 57 57 57 56 54 53 42 39 39 40 39 40 45 59 57 57 57 56 55 55 53 52 51 50 51 51 51 51 51 49 49 46 44 44 45 46 46 43 42 43 47 48 46 45 45 47
60 59 59 59 59 59 58 57 57 57 57 57 56 56 56 55 56 56 56 57 56 55 52 43 39 39 40 39 40 43 60 57 57 57 57 56 54 53 52 51 50 51 52 52 52 49 48 47 47 48 50 50 51 49 46 45 45 44 47 49 47 45 48
59 59 59 59 58 58 57 57 57 58 57 57 56 56 55 55 55 55 56 56 56 54 51 40 40 39 39 39 38 45 58 57 57 57 58 57 57 55 54 52 52 52 52 52 51 46 46 46 45 46 47 48 49 50 50 51 51 51 50 48 46 46 47
59 59 59 59 58 57 56 56 56 57 57 57 57 57 56 56 55 55 55 56 56 55 52 40 40 39 39 39 39 56 57 57 56 57 57 57 58 56 54 53 53 52 52 52 46 40 41 44 46 46 46 46 48 49 50 50 46 45 47 47 47 47 47
59 59 58 58 57 56 56 56 57 58 57 57 56 56 56 56 56 56 55 55 54 55 54 45 39 40 39 38 44 56 56 57 57 56 57 57 57 56 55 54 54 53 52 51 44 39 39 41 47 45 44 44 45 47 48 50 46 43 42 42 42 42 41
59 58 58 57 56 56 57 57 57 58 57 56 56 57 57 57 57 56 55 54 54 54 54 47 40 40 39 39 42 54 56 55 56 56 56 57 57 57 56 50 51 53 50 50 41 38 39 43 46 44 43 42 42 43 45 46 46 45 44 43 43 43 43
59 58 58 57 57 56 56 57 58 58 58 58 57 58 58 57 56 57 56 54 50 53 54 50 42 40 39 39 44 53 56 55 54 54 55 55 56 56 56 54 48 48 47 45 39 39 39 43 46 45 43 41 39 40 41 42 41 42 43 44 46 47 47
58 58 58 57 57 57 58 57 57 57 58 60 59 58 58 57 56 56 56 56 54 54 53 54 49 39 40 40 39 48 56 53 52 52 54 54 53 54 55 56 53 45 41 40 39 38 39 40 44 46 44 40 38 36 40 40 42 42 42 43 43 45 45
58 58 58 57 57 58 58 57 57 57 57 58 57 56 56 56 56 56 56 56 56 55 53 53 51 40 41 40 39 41 54 52 51 51 54 54 55 53 54 54 56 47 41 40 39 39 39 40 41 48 45 41 39 39 40 40 41 41 41 42 42 42 43
58 58 58 58 57 57 58 58 58 58 59 57 56 56 56 57 57 56 57 56 56 55 53 48 53 45 41 40 40 39 48 51 48 49 53 55 55 54 54 54 54 48 41 40 39 39 39 40 41 50 45 39 38 38 40 42 40 39 40 40 40 39 40
57 58 58 58 57 56 58 58 57 58 57 57 57 56 56 57 57 57 57 58 58 57 56 55 44 50 43 40 40 40 39 44 41 49 52 54 53 53 55 54 53 45 40 40 40 40 39 40 46 47 39 39 39 38 41 41 40 39 38 38 38 37 38
58 58 58 58 58 57 57 57 58 58 58 58 58 57 58 58 57 57 56 56 57 58 58 58 47 42 47 42 41 39 40 39 39 49 51 55 55 55 54 53 50 41 40 40 40 40 41 43 47 41 40 40 40 41 42 41 40 39 38 37 37 37 37

ECMWFFLT1_sfc_temp_087.txt.gz
Temp
69 67 68 68 68 68 67 66 68 69 70 70 69 70 71 71 70 70 71 71 71 72 73 73 71 71 70 71 70 70 69 68 67 65 65 68 65 66 70 70 70 72 72 72 71 67 66 64 69 77 79 78 79 79 80 80 81 80 79 80 81 83 82
70 69 70 69 67 67 65 64 66 68 68 68 69 69 71 71 71 71 71 71 70 70 72 71 70 70 69 68 68 67 66 65 66 65 64 63 64 64 65 65 67 69 70 71 71 70 65 63 66 70 71 76 76 77 78 80 81 81 81 81 82 82 80
69 68 68 66 66 66 64 64 65 66 67 67 68 69 69 71 70 71 71 70 69 69 70 70 69 68 68 69 68 66 66 64 65 64 62 64 64 64 64 63 62 63 64 65 68 67 66 66 61 64 68 68 68 73 77 78 79 81 81 81 81 82 82
67 66 65 65 66 66 64 64 65 66 67 67 68 68 69 70 70 69 68 69 69 68 68 68 67 67 68 69 68 67 66 63 63 63 63 63 63 63 63 63 62 62 61 60 62 63 62 62 63 65 67 71 71 69 73 78 77 79 81 81 80 82 82
67 66 65 64 65 65 64 64 65 65 65 67 68 68 67 68 67 67 68 68 67 66 66 67 66 67 68 68 66 65 64 63 62 61 61 60 60 61 61 62 62 62 63 62 62 62 61 61 61 61 64 68 68 70 73 74 77 77 80 80 83 83 83
67 66 65 65 65 65 64 64 64 64 65 65 65 66 66 66 67 65 66 65 65 66 65 66 66 66 66 66 65 65 63 62 62 61 60 60 60 59 59 61 61 62 62 63 63 61 61 61 60 59 62 64 60 63 69 72 71 78 80 80 82 84 83
65 65 65 65 65 64 64 63 64 64 64 64 65 65 65 67 67 66 66 65 66 66 66 65 66 66 66 67 66 64 64 64 64 63 63 62 62 62 62 61 61 62 62 63 62 61 59 58 56 56 56 58 59 59 64 68 71 70 74 79 82 81 80
64 64 64 64 64 63 64 63 63 64 65 66 65 65 66 66 66 66 65 65 65 65 65 65 66 66 66 67 66 65 65 65 65 64 64 63 63 63 63 63 63 64 63 63 63 62 62 59 57 56 54 51 54 57 58 63 66 67 69 73 76 77 79
64 64 63 63 63 63 63 63 63 64 65 65 65 65 65 65 65 65 66 65 65 65 65 65 65 66 65 65 65 64 64 66 65 64 64 64 63 63 64 64 64 64 65 64 64 63 63 62 61 60 58 55 50 49 54 55 59 62 68 67 72 75 75
63 62 62 62 62 63 63 64 64 65 65 65 65 65 64 65 65 65 65 65 64 64 64 65 65 65 65 65 64 64 63 65 65 64 64 63 64 64 64 63 63 65 64 63 63 63 63 63 62 62 61 58 56 50 48 50 53 55 61 67 65 69 73
63 63 63 63 64 64 65 65 65 64 64 65 65 65 65 65 64 65 65 64 64 64 64 64 65 65 65 64 64 64 64 65 64 65 64 64 63 64 63 64 64 64 64 63 62 62 62 63 62 62 62 62 61 56 54 50 51 57 58 63 65 65 69
64 65 66 66 66 65 64 64 64 64 64 65 65 65 65 65 65 64 64 64 64 64 64 64 64 64 64 63 63 63 64 64 64 63 63 63 63 63 62 62 63 62 62 61 62 62 62 62 61 62 61 61 60 59 57 55 50 57 60 57 62 66 65
67 67 66 65 64 65 65 64 64 63 64 65 64 65 65 65 64 64 64 64 64 64 64 63 64 64 63 63 62 63 63 63 63 62 63 63 63 62 62 61 62 61 61 61 61 61 61 61 61 60 60 59 60 60 58 56 53 53 59 60 61 63 66
64 65 64 64 64 63 64 64 64 65 65 64 65 64 64 65 65 64 65 64 64 63 63 62 63 63 62 62 62 62 62 63 62 62 62 62 63 62 61 61 61 61 61 59 59 59 60 59 59 58 58 59 58 58 57 54 52 52 56 60 60 61 64
64 64 63 64 63 64 64 63 64 64 63 64 65 65 65 64 65 64 64 64 63 63 63 63 62 62 61 61 61 61 61 62 61 61 61 61 61 61 60 61 60 61 61 59 59 58 58 57 56 55 56 56 55 55 57 54 52 51 50 55 57 61 61
63 63 63 63 63 63 63 64 65 64 64 64 64 65 64 64 64 65 64 63 63 62 62 62 61 61 61 61 61 61 61 61 60 60 60 60 61 61 60 59 60 60 59 58 57 55 55 53 53 53 53 54 53 54 55 55 52 50 50 52 56 57 59
63 62 62 62 62 63 63 64 64 64 64 64 63 63 64 65 64 64 63 62 62 61 60 60 60 61 61 61 61 61 62 61 61 61 60 60 60 60 60 59 59 59 58 56 54 53 53 52 52 52 52 52 52 52 53 53 53 51 50 50 54 56 59
61 61 61 62 61 62 63 63 64 64 63 63 64 64 64 65 64 63 61 61 61 60 59 59 58 59 59 60 60 61 61 61 61 61 60 60 60 60 59 58 59 58 56 54 53 52 52 51 52 52 51 52 52 52 52 52 52 52 51 50 52 56 58
61 61 61 61 61 62 63 63 63 64 65 63 63 63 63 63 63 63 62 61 60 60 59 58 57 57 58 59 59 60 61 60 61 61 60 61 61 60 59 59 58 57 55 53 51 51 51 50 51 50 50 51 52 51 50 50 51 51 50 50 51 51 55
61 61 61 61 62 62 63 63 63 63 64 63 63 62 62 62 62 62 61 60 59 58 57 56 55 54 55 57 58 60 60 60 61 60 60 61 61 60 60 59 58 56 54 53 51 51 50 50 50 50 50 50 51 49 48 48 49 49 48 48 50 52 53
62 62 62 62 62 62 62 62 62 62 63 62 62 62 62 62 62 62 60 60 59 57 56 55 53 53 54 55 56 60 60 59 60 60 60 60 60 60 59 58 57 56 54 54 52 51 51 49 50 49 50 50 49 47 46 47 47 47 47 47 48 49 51
63 63 63 62 62 61 62 62 62 62 62 61 61 63 63 63 62 61 61 60 58 56 54 52 51 49 50 52 54 58 60 60 59 59 59 59 60 59 59 58 57 56 55 53 50 49 49 48 49 48 49 48 47 46 46 46 46 46 46 46 46 49 49
63 63 63 62 62 62 62 61 61 62 61 62 62 62 62 62 62 61 60 59 57 55 53 52 45 42 42 47 51 56 60 60 60 59 58 58 58 59 58 58 57 55 52 51 50 47 46 46 47 48 48 47 46 46 45 45 45 46 45 44 45 45 45
63 63 63 62 62 62 62 61 61 61 60 61 60 61 61 61 61 60 60 58 56 54 52 49 41 41 40 41 47 52 58 59 60 59 59 58 57 58 57 57 57 56 55 53 54 48 46 45 45 44 44 45 46 47 46 45 45 45 44 44 45 45 45
64 63 63 63 63 63 62 61 61 61 60 60 60 60 59 60 60 60 59 58 56 54 52 43 40 41 41 40 42 48 58 59 59 59 59 59 59 58 56 55 56 57 56 55 54 52 50 46 45 44 44 44 44 44 44 46 45 45 45 44 44 45 45
63 63 63 63 63 62 62 61 60 60 59 60 60 59 59 59 59 60 59 57 56 54 53 42 40 40 41 40 40 44 59 59 59 59 59 59 59 57 56 55 55 55 55 53 53 52 50 50 47 46 46 47 47 46 44 42 43 47 47 45 44 44 45
63 63 62 62 62 62 61 60 60 60 60 60 59 58 58 58 58 59 59 58 56 54 52 44 40 40 41 40 40 42 60 59 59 60 59 59 59 57 56 55 55 55 54 54 53 50 49 49 48 50 51 50 50 49 47 46 45 45 46 46 45 42 45
62 62 63 62 61 61 60 60 60 61 60 60 59 59 58 57 58 58 59 58 56 53 50 40 41 40 40 40 40 45 60 59 59 60 59 59 60 58 58 56 55 54 53 54 51 48 47 47 48 49 49 49 49 50 50 50 50 49 47 46 46 45 45
62 62 62 62 61 60 60 59 59 60 60 60 60 60 59 59 58 58 58 58 57 54 51 40 40 40 40 40 41 56 59 59 58 59 59 59 59 60 58 56 55 54 53 53 49 42 43 45 48 49 48 48 48 49 49 49 45 45 46 46 46 46 46
62 62 61 61 60 59 59 59 60 61 60 60 59 59 58 58 59 58 57 57 57 55 53 44 40 40 40 39 45 56 58 58 58 58 58 59 60 60 57 57 55 54 52 53 47 41 41 41 48 48 48 47 47 47 47 49 45 43 42 42 42 42 41
62 61 61 60 59 59 60 60 60 61 60 59 59 60 60 59 59 58 57 55 56 56 53 46 40 41 40 40 44 54 57 56 56 56 58 59 60 60 55 49 53 54 52 52 44 40 40 44 48 48 48 47 46 46 46 47 46 46 44 44 43 42 42
62 62 61 60 60 59 60 60 61 61 61 61 60 61 61 60 59 59 58 56 53 55 55 49 41 41 40 40 45 53 56 56 54 54 57 58 58 59 59 55 47 48 50 48 42 42 40 43 47 48 49 48 46 44 45 45 43 43 45 46 46 47 44
62 61 61 60 61 60 61 61 61 61 62 63 62 61 61 60 58 58 59 58 56 56 55 54 48 41 41 41 41 49 55 53 51 52 54 58 57 58 59 59 55 45 43 43 42 41 41 40 45 49 51 49 45 41 45 44 45 45 45 45 44 44 44
61 61 61 60 61 61 61 60 60 61 60 61 60 59 59 59 59 58 59 59 58 57 56 55 50 40 42 42 41 43 53 52 52 52 52 55 57 56 57 57 57 49 43 42 42 41 41 40 41 47 51 49 46 43 43 47 49 47 46 45 44 43 43
61 60 61 61 60 60 61 61 61 61 62 60 59 59 59 60 60 59 60 60 59 58 54 50 56 45 42 42 42 40 49 52 51 51 51 53 56 55 56 55 56 50 43 42 41 41 40 41 39 49 52 42 39 39 47 51 51 49 47 45 43 41 41
60 60 60 61 60 59 60 60 60 60 60 60 59 59 59 59 59 59 60 60 60 60 58 53 45 52 44 42 42 41 39 45 43 50 51 51 54 54 56 56 55 48 43 42 41 40 41 40 44 51 41 40 40 39 47 53 50 48 46 44 42 40 39
60 60 60 61 60 60 60 60 61 61 61 61 61 60 60 60 60 59 59 59 60 60 60 59 48 44 50 44 42 41 41 39 39 50 51 53 55 54 55 55 52 43 41 41 41 40 42 43 50 43 41 40 41 46 53 52 50 47 44 42 40 38 38

ECMWFFLT1_sfc_temp_093.txt.gz
Temp
62 61 63 63 63 64 63 63 63 63 63 63 62 62 62 62 62 60 60 59 60 61 61 59 58 58 58 59 58 57 57 56 56 55 54 55 54 54 57 56 56 58 57 57 57 54 53 50 53 59 58 59 60 60 61 62 62 62 62 64 65 67 68
64 63 63 64 63 63 62 62 63 64 62 61 62 61 61 61 61 60 59 59 59 59 60 58 58 59 57 56 56 55 55 55 56 57 53 53 54 53 53 53 53 53 53 55 55 55 51 49 49 51 52 57 58 57 59 60 61 61 62 63 65 66 66
62 62 62 61 62 62 61 61 61 62 61 60 60 60 60 60 59 60 59 58 57 59 60 58 57 57 57 56 55 54 54 53 54 54 53 52 54 53 53 52 52 51 51 52 52 52 51 51 47 49 51 51 50 54 57 58 59 60 61 62 62 64 64
60 60 60 60 61 61 61 61 61 61 61 59 58 58 58 58 58 59 58 58 58 59 58 57 56 56 56 55 55 54 54 53 52 53 53 53 53 52 53 51 51 52 51 49 49 50 50 48 48 48 50 52 51 50 54 57 58 59 61 61 61 62 63
62 62 61 60 60 61 60 60 60 59 58 57 56 55 56 57 57 56 57 56 57 56 56 57 57 57 57 56 54 55 54 54 54 55 53 53 53 52 53 53 53 54 53 51 51 51 49 49 48 48 49 50 51 51 55 56 58 58 59 59 60 61 62
63 62 61 61 61 61 60 59 57 55 55 55 54 55 55 56 56 55 55 55 55 57 56 56 56 56 56 56 55 55 54 54 54 54 53 53 52 52 52 53 54 55 53 52 52 51 50 50 49 47 48 50 46 48 52 53 53 56 58 58 59 60 60
60 61 61 60 60 60 60 58 56 55 54 54 54 54 55 57 56 56 56 55 55 56 56 56 56 56 55 56 55 54 54 54 55 53 53 53 53 53 53 53 53 53 52 53 52 52 50 49 48 46 45 46 47 46 49 50 53 51 54 57 59 59 59
60 60 60 61 61 60 60 58 56 55 55 55 55 56 56 55 55 56 56 55 55 54 55 55 56 55 54 55 55 54 54 54 54 54 53 53 53 52 52 52 53 52 52 52 52 51 51 49 47 46 45 41 42 44 44 48 49 49 50 54 57 57 57
61 60 60 60 60 60 59 57 55 55 55 54 56 55 55 55 55 55 55 54 54 54 55 55 55 54 54 53 53 53 53 56 53 53 52 53 52 52 51 52 51 51 51 52 52 50 50 49 48 47 46 44 40 38 42 41 44 45 51 49 53 55 55
59 59 59 59 59 58 57 55 55 54 54 55 56 55 54 54 54 54 54 54 54 54 54 54 54 54 54 53 53 52 52 53 53 52 52 52 52 52 50 51 50 51 51 51 50 50 49 49 48 47 47 44 43 40 38 38 41 41 46 50 46 51 54
59 59 59 58 58 57 55 55 55 54 54 56 56 57 54 54 54 56 53 53 53 54 53 53 53 53 53 52 52 52 52 52 52 52 53 52 52 52 51 52 51 50 50 50 49 49 49 48 47 47 47 47 45 41 40 38 39 44 44 48 49 48 52
58 58 58 58 57 56 54 54 53 53 54 55 55 53 54 54 54 53 53 53 53 53 53 52 52 52 51 51 52 51 51 52 51 50 51 52 52 52 51 50 50 49 49 49 48 48 48 48 47 47 47 47 46 44 42 41 38 44 47 44 48 51 50
58 59 59 58 57 55 55 55 54 54 54 55 54 54 54 53 53 53 53 52 52 51 51 51 51 51 51 50 51 52 52 51 51 50 50 51 53 51 50 49 49 48 48 48 47 47 46 47 47 46 47 46 46 45 44 42 40 40 47 46 47 49 51
58 58 57 56 55 54 54 55 54 54 55 53 54 54 54 53 53 52 52 52 51 50 50 50 50 50 50 49 50 51 50 51 50 49 51 50 52 51 49 48 48 48 48 46 46 46 46 46 46 46 46 46 45 45 45 43 41 41 44 48 48 48 50
56 56 55 55 54 54 54 53 53 54 53 53 54 54 53 53 52 52 51 50 49 49 49 48 48 48 49 49 49 53 51 51 50 49 50 49 49 50 49 48 47 47 46 44 45 46 46 45 46 45 45 45 44 44 46 44 42 41 41 46 47 50 50
55 54 54 53 54 54 53 53 54 53 53 53 54 54 53 53 52 51 50 49 48 48 47 47 47 47 48 48 48 49 50 50 49 49 49 49 49 49 47 47 46 45 47 44 45 45 45 45 45 44 44 44 43 44 46 46 44 41 42 43 47 47 48
54 53 53 52 52 52 53 53 54 53 53 53 53 53 53 52 51 50 49 48 47 46 46 46 46 46 47 47 47 48 49 48 49 48 49 49 48 48 46 45 45 45 44 44 44 44 44 44 44 43 43 43 43 44 46 46 46 44 43 42 45 46 47
52 52 52 52 52 53 53 53 53 52 52 52 52 53 53 52 50 49 47 47 46 45 45 45 44 45 46 46 47 47 48 48 49 48 48 49 51 47 46 45 45 45 44 43 43 43 43 43 43 43 42 42 43 44 46 46 46 46 44 43 44 47 48
52 52 52 52 52 53 53 53 53 53 54 53 52 52 51 51 50 48 47 46 46 45 44 43 43 43 44 45 45 46 47 48 49 48 47 48 48 47 45 45 46 45 44 42 42 42 42 42 42 42 41 42 42 43 43 45 46 45 44 44 44 44 46
51 52 52 51 52 52 52 52 53 53 54 53 52 51 51 50 49 48 47 46 45 44 43 42 41 41 42 43 44 45 46 47 49 48 47 48 48 47 47 46 46 45 43 42 42 42 41 41 42 41 42 41 42 41 42 43 44 43 43 42 43 44 44
52 52 51 51 52 52 52 52 52 52 53 52 52 51 50 49 48 48 46 45 45 44 42 41 41 40 41 42 42 44 45 46 48 47 47 47 47 47 48 47 46 44 43 42 42 42 41 41 41 41 42 42 42 41 41 42 42 42 42 41 41 42 44
52 52 52 52 52 52 52 51 51 52 51 52 52 51 51 49 48 46 45 44 43 43 42 42 41 40 40 41 41 43 44 45 47 48 46 46 46 46 46 46 45 45 48 51 49 47 47 47 43 41 42 42 42 41 40 41 41 41 41 41 41 43 42
52 51 51 51 51 51 50 50 51 51 51 51 51 51 50 49 47 46 44 43 43 43 42 42 43 43 43 41 41 42 44 44 46 46 47 45 46 46 46 45 49 53 51 50 48 47 45 45 46 45 43 42 42 40 40 40 41 41 40 40 40 40 40
52 51 51 51 50 50 50 50 50 50 50 51 51 51 49 47 46 45 44 42 41 42 42 43 42 41 41 42 43 41 42 44 46 46 46 45 45 46 46 44 44 49 48 48 46 46 44 44 44 44 44 45 45 43 41 41 41 41 40 40 40 40 40
51 51 51 50 50 50 50 50 50 49 49 49 50 49 48 47 45 44 43 41 40 41 41 43 41 42 41 41 43 42 42 44 47 46 47 46 46 45 45 44 44 46 46 46 46 43 44 45 44 43 43 43 43 43 44 43 42 41 41 40 39 41 41
51 50 51 51 50 50 50 49 49 48 48 48 49 48 47 46 45 44 43 42 41 40 39 42 41 42 41 41 42 44 46 46 47 46 45 46 46 44 44 45 43 44 45 51 49 42 41 42 44 44 44 44 44 44 43 42 43 44 43 40 41 42 43
50 50 50 50 50 49 49 48 47 47 48 48 47 47 47 46 45 44 43 42 40 40 39 42 41 42 41 41 41 44 47 46 46 47 47 47 45 44 43 43 42 43 41 42 43 42 42 41 41 41 41 42 42 44 44 44 44 44 45 44 43 42 45
51 50 50 50 49 49 49 48 49 48 48 47 46 46 46 45 45 45 43 42 42 41 41 41 41 41 41 41 42 44 44 46 46 45 45 46 46 43 43 43 43 43 41 42 44 45 43 41 40 41 41 41 42 43 43 44 45 45 45 45 45 45 46
50 50 50 49 49 48 47 47 47 47 46 45 45 45 45 46 44 43 43 42 41 39 39 40 41 41 41 41 43 44 43 43 44 44 44 45 46 43 43 43 43 43 41 42 46 44 44 43 41 41 41 41 41 42 43 47 46 45 46 45 45 46 47
50 50 50 49 47 46 47 47 47 48 46 45 44 44 43 44 45 44 43 42 40 38 38 40 40 42 41 41 42 42 41 43 42 42 42 43 44 44 43 44 43 43 42 44 46 42 42 43 42 41 40 40 41 41 42 45 46 45 44 43 43 43 42
50 49 48 47 47 47 47 47 47 48 46 45 45 45 44 44 43 43 43 41 41 39 39 42 41 41 41 41 42 40 40 41 41 40 41 43 44 43 43 52 50 44 44 45 44 42 42 43 42 41 39 39 39 39 41 44 45 45 45 44 43 43 44
50 49 48 48 48 47 47 48 48 48 47 47 47 46 46 44 43 43 42 43 47 42 39 43 43 42 42 40 41 39 40 39 40 39 40 41 43 44 44 46 49 48 47 45 42 42 42 43 41 40 39 38 37 38 41 43 42 43 43 42 46 48 47
49 49 48 47 47 47 47 48 48 48 47 47 47 45 45 45 44 43 44 45 45 42 41 41 43 43 42 41 41 39 40 38 39 39 39 42 42 42 42 43 45 44 43 42 42 41 41 41 41 40 39 37 37 39 44 42 44 45 43 43 45 47 46
50 49 48 48 48 49 48 48 47 47 46 47 46 45 46 46 45 44 44 43 44 43 43 40 41 43 43 41 40 41 37 38 37 37 37 39 39 39 40 41 42 44 43 42 41 41 40 40 41 41 39 39 40 43 42 41 43 45 43 44 45 45 45
50 50 49 49 48 47 47 48 48 48 47 46 47 47 46 46 45 45 45 44 43 42 46 46 40 42 42 41 41 41 40 39 39 38 39 39 39 39 40 40 42 44 42 41 40 40 40 40 40 42 42 40 41 42 44 43 42 44 44 44 44 44 43
50 51 50 49 48 48 48 49 49 49 48 47 47 47 46 46 45 45 44 44 42 42 41 43 43 41 43 41 41 41 40 39 39 39 38 38 38 39 39 41 43 44 40 40 40 40 40 40 41 43 42 41 41 42 43 42 43 43 43 43 42 42 42
50 49 49 50 50 49 48 48 49 49 47 47 47 46 45 47 45 44 43 42 43 42 42 42 44 44 42 41 41 41 40 40 40 39 40 39 40 39 40 41 42 40 40 40 40 40 40 41 42 42 42 41 41 44 42 41 43 42 41 41 41 41 41

ECMWFFLT1_sfc_temp_096.txt.gz
Temp
61 60 61 62 62 61 60 60 61 61 61 61 60 60 59 59 58 57 57 57 57 58 58 56 55 54 55 56 55 54 54 54 52 51 50 51 50 51 54 53 54 55 54 53 52 48 47 45 48 51 52 54 53 53 55 55 56 55 56 57 59 59 59
62 62 63 63 62 62 60 61 61 61 61 61 61 59 58 58 59 57 56 56 56 56 57 56 55 54 53 53 53 52 52 52 54 53 50 49 50 49 50 50 51 50 51 51 51 50 47 43 44 46 47 51 51 51 53 54 55 55 56 56 58 58 58
61 61 62 61 61 61 60 59 59 59 59 59 59 58 57 57 56 57 56 55 55 57 57 54 53 53 52 52 52 52 52 52 51 52 51 50 51 51 50 50 49 48 48 48 47 47 47 47 43 44 46 45 44 48 51 52 53 53 55 55 55 56 57
58 58 57 57 58 59 58 58 58 58 59 57 57 56 55 55 55 57 55 55 56 57 55 54 53 53 52 52 53 53 53 52 52 51 52 52 51 51 50 49 48 47 46 44 44 45 45 43 42 42 44 46 45 45 48 51 52 52 53 53 54 55 55
58 58 57 56 57 57 57 56 57 57 56 56 55 54 53 54 55 53 54 54 55 53 53 53 53 53 53 53 53 53 52 52 52 52 51 50 50 50 49 49 49 49 48 46 46 46 44 43 42 40 41 43 44 45 48 49 50 51 51 51 53 54 54
58 58 58 58 58 57 57 56 56 54 54 53 52 52 52 53 53 53 53 52 52 54 53 53 53 53 53 52 52 52 52 51 51 50 50 49 49 49 48 49 49 48 47 47 47 45 44 44 42 39 41 42 39 41 45 46 46 49 50 51 52 53 53
58 58 58 59 59 58 57 56 55 54 53 52 51 51 52 53 53 53 53 52 52 53 54 53 52 53 52 52 51 51 51 51 51 50 49 49 49 49 49 48 48 47 47 47 46 45 44 42 41 40 39 40 41 40 43 44 46 45 47 50 52 52 52
58 59 59 59 58 57 57 56 55 54 53 52 51 51 53 52 52 53 53 52 52 52 52 52 53 52 52 52 52 51 51 51 50 51 50 49 49 48 48 48 48 47 46 46 45 45 45 43 42 41 40 37 37 39 39 42 43 43 44 48 51 51 51
59 58 58 58 58 58 57 56 53 52 52 51 52 52 51 52 52 52 52 51 51 51 51 51 51 51 51 51 50 50 50 53 50 50 49 49 48 48 47 47 47 45 46 46 46 45 44 45 44 42 41 39 36 34 38 37 40 41 46 45 48 50 50
58 57 57 57 57 57 57 55 53 51 52 52 53 51 50 51 51 51 50 50 50 50 50 50 50 50 50 50 50 49 49 50 50 49 49 48 48 48 47 46 46 45 44 45 45 46 45 44 44 43 42 40 39 36 35 35 38 38 43 46 42 47 50
58 58 58 57 57 57 56 54 52 52 51 53 53 53 51 50 50 52 49 49 49 49 49 49 49 49 50 50 49 49 48 49 49 49 49 48 47 48 47 46 45 44 45 44 45 45 45 44 43 43 42 42 41 37 38 35 36 41 41 45 46 45 48
58 58 58 58 57 56 53 52 51 50 51 52 52 51 50 50 49 49 48 48 48 48 48 48 48 48 48 48 49 48 48 49 48 48 48 48 47 47 46 45 44 43 45 44 44 44 44 45 43 43 42 42 42 39 39 39 36 41 44 41 45 48 47
58 58 57 56 55 54 52 51 51 51 51 51 50 50 49 49 48 47 47 47 47 47 47 47 47 47 47 46 48 48 48 48 48 47 46 47 47 46 45 44 43 43 43 43 43 43 43 44 43 42 42 41 41 41 41 40 38 38 44 44 45 47 49
57 57 55 54 53 52 52 52 51 51 51 50 50 49 49 48 47 47 46 47 45 45 45 45 46 46 46 46 47 48 48 48 47 46 47 45 46 45 44 43 43 44 43 43 42 42 43 42 42 41 42 40 40 41 40 39 38 39 42 45 45 46 48
55 54 53 52 52 51 51 50 50 51 50 50 50 49 48 47 46 46 45 44 44 44 44 44 44 45 45 45 45 48 48 47 46 46 46 44 43 45 43 42 43 43 43 42 41 42 41 41 41 40 40 41 39 40 42 40 39 38 38 43 43 46 46
54 53 52 51 51 51 50 50 52 51 50 49 49 48 47 46 46 45 44 43 43 43 43 43 43 44 44 44 44 44 46 46 46 45 45 44 43 43 43 43 41 42 43 40 40 40 40 40 41 40 40 40 40 40 41 41 39 37 38 40 43 43 44
53 52 51 51 50 50 50 50 51 50 49 49 48 47 47 46 45 44 43 43 42 42 42 42 42 43 43 43 43 43 44 45 45 45 45 44 43 43 42 42 41 41 42 39 39 39 40 39 39 40 39 40 40 40 41 41 41 39 39 38 41 42 44
52 51 50 50 50 50 50 50 51 50 49 48 47 47 46 45 44 43 43 42 41 41 41 41 41 41 42 42 42 43 43 44 44 45 45 45 48 43 43 41 41 41 40 39 39 39 39 39 40 40 39 39 40 40 41 41 40 40 39 38 40 42 44
50 50 50 50 50 50 50 50 50 50 49 47 46 46 45 44 44 42 42 41 41 40 40 40 40 40 40 41 42 42 42 43 45 44 44 44 43 43 43 41 41 40 40 40 39 39 38 38 39 39 38 39 39 40 39 40 40 40 40 39 40 40 42
50 50 50 49 50 50 50 50 50 49 49 47 46 45 44 43 43 42 42 41 41 40 40 39 38 38 39 39 40 41 42 41 43 43 44 44 43 43 43 42 41 40 39 40 40 40 38 39 40 39 40 39 40 39 38 39 40 39 39 39 40 40 40
49 49 49 49 50 50 50 50 49 49 48 47 45 45 43 43 42 42 41 41 40 40 39 39 38 38 38 38 39 40 40 42 42 44 43 43 43 43 43 42 41 41 39 39 41 40 39 40 39 39 40 40 39 39 38 39 39 39 38 39 39 39 40
49 50 49 49 49 49 49 49 48 48 48 47 46 45 44 43 42 41 40 40 39 40 40 40 40 38 38 39 38 40 40 41 42 43 43 44 44 43 42 41 41 40 44 51 49 47 47 46 42 39 40 39 40 39 38 38 38 38 39 39 39 40 40
49 49 49 49 49 48 48 48 48 48 47 46 45 44 43 43 41 40 40 39 38 40 40 40 43 43 43 41 39 40 41 41 42 42 43 43 44 43 42 42 46 53 52 49 48 47 45 45 46 44 42 41 40 38 38 38 38 39 39 38 39 39 38
49 49 48 48 48 48 48 48 48 47 46 45 44 45 43 41 40 39 39 38 38 39 39 41 42 40 41 43 42 41 41 42 42 41 42 42 41 43 42 42 42 48 49 47 46 46 44 44 44 43 44 45 45 42 39 38 38 39 39 38 39 39 38
49 48 48 48 48 48 48 48 47 46 45 44 44 43 41 40 39 39 39 38 38 39 39 43 40 41 41 42 45 43 43 43 43 41 41 41 42 41 40 42 41 43 44 43 45 42 43 44 43 43 43 43 43 43 43 40 39 38 38 38 38 39 39
48 47 47 47 47 47 48 47 46 45 45 45 43 42 41 40 39 38 38 38 37 38 38 42 40 41 41 41 42 44 43 41 42 41 41 41 39 40 41 41 40 42 42 49 48 41 39 40 44 44 44 44 43 43 42 41 42 42 41 39 39 39 40
48 47 47 47 47 47 47 46 45 45 45 44 43 42 40 40 39 38 38 37 37 37 37 42 40 41 41 41 41 42 41 40 40 40 41 41 40 40 39 40 40 42 41 41 42 41 40 40 41 42 41 41 41 43 43 43 42 42 43 42 41 39 42
48 47 47 47 46 46 45 44 45 45 44 43 42 41 40 39 39 39 38 37 37 37 39 41 40 40 40 41 41 42 38 40 40 39 40 40 39 39 38 39 39 40 40 41 43 44 42 41 41 41 40 40 40 40 41 41 42 43 43 43 42 42 43
47 46 46 46 46 45 44 45 44 44 44 42 42 41 39 40 39 38 38 37 37 36 38 41 40 40 40 40 41 41 37 38 37 38 39 39 39 39 38 38 39 40 41 41 45 43 43 42 40 39 39 39 39 40 41 45 44 44 44 43 43 43 44
47 46 46 46 45 44 44 43 43 44 43 42 41 41 41 40 40 38 38 38 36 36 38 42 41 41 40 40 40 37 36 37 37 37 37 38 38 39 39 41 40 40 41 41 44 42 41 41 38 38 38 37 38 38 40 43 44 44 43 43 43 43 42
47 47 46 46 45 44 43 43 43 44 43 42 42 41 41 41 40 40 39 37 37 37 39 43 42 41 40 40 41 36 37 37 36 36 37 37 38 38 40 49 48 41 41 42 43 40 40 40 38 37 37 36 37 38 40 43 43 43 44 44 44 43 43
48 47 46 45 45 44 43 44 43 43 43 43 43 42 43 42 41 40 39 38 46 40 38 42 42 40 40 40 40 36 37 36 37 35 36 38 39 40 39 42 45 44 43 42 40 40 39 40 37 37 36 36 37 38 40 41 40 41 42 42 43 44 44
47 47 46 44 44 45 45 44 43 43 42 43 42 41 43 44 43 42 41 40 43 40 39 40 41 41 40 40 42 37 36 37 38 35 35 38 39 38 38 39 42 41 40 40 39 39 39 39 38 38 37 37 37 38 41 40 43 43 41 41 41 42 42
47 46 46 46 46 45 45 45 44 43 42 43 42 42 43 44 44 42 41 41 40 39 40 38 40 41 41 40 41 40 36 37 36 35 33 35 34 36 37 38 39 42 40 39 39 39 39 39 40 40 39 38 39 40 40 40 42 43 41 41 41 42 42
48 47 46 46 45 45 44 45 45 44 43 43 43 44 43 43 42 41 40 41 41 41 43 45 38 42 41 40 41 42 39 38 37 37 35 35 36 37 37 37 38 41 40 39 38 39 39 40 40 42 41 40 40 39 41 42 40 41 40 40 40 40 40
47 48 47 46 46 45 43 44 44 45 44 44 44 44 44 43 42 40 40 39 40 40 40 42 42 40 41 40 40 40 40 38 40 38 35 36 35 37 36 37 39 42 39 38 39 39 39 39 41 41 40 40 40 39 41 40 40 39 39 39 39 38 39
48 47 46 46 46 45 45 46 45 45 46 46 45 45 44 44 42 40 40 38 40 40 38 38 41 42 40 40 40 40 39 39 39 38 39 37 36 36 37 38 39 38 38 39 39 39 39 40 40 40 40 40 40 41 39 38 38 38 38 38 37 37 38

ECMWFFLT1_sfc_temp_102.txt.gz
Temp
58 57 58 58 59 59 58 58 58 57 57 57 56 56 56 58 57 55 56 55 55 55 55 53 52 53 53 53 53 52 52 51 50 49 48 48 48 48 50 48 49 48 48 47 47 46 45 43 45 48 48 49 49 48 49 49 50 50 50 51 52 52 52
59 58 60 60 59 59 57 58 58 58 58 57 56 56 56 56 57 55 55 54 54 54 55 53 53 52 52 51 51 51 50 50 51 50 48 47 47 45 46 46 46 46 46 45 45 46 44 43 42 43 43 47 48 48 48 49 49 50 50 50 52 52 52
60 59 59 58 57 57 57 56 56 56 56 55 54 54 54 54 54 55 54 54 54 55 55 52 52 52 51 51 51 50 50 49 49 49 47 47 47 46 46 45 44 44 44 44 43 42 42 43 42 42 41 40 41 45 47 47 49 49 50 50 50 51 51
58 57 56 55 56 56 56 56 55 54 54 53 53 53 52 53 54 55 53 54 54 54 53 52 51 51 51 50 50 50 49 48 48 47 47 47 46 46 45 45 43 43 42 41 41 41 41 40 41 41 41 43 42 43 47 48 49 49 49 50 50 50 51
58 57 55 54 55 54 55 54 54 53 52 51 51 51 51 52 53 52 53 52 52 51 51 51 51 51 51 51 50 49 48 48 48 48 46 45 45 45 45 45 45 45 44 43 43 43 42 41 40 40 40 41 42 44 47 47 48 49 49 49 51 51 51
59 58 57 56 57 56 55 54 53 51 51 51 50 50 50 51 52 51 51 51 51 51 51 51 51 51 50 50 49 48 48 47 47 46 45 45 45 45 44 45 45 45 44 44 44 43 43 42 41 40 41 42 40 41 45 45 45 49 49 50 50 51 51
59 59 58 57 56 55 54 52 52 52 51 50 50 49 50 51 51 51 51 50 51 51 52 51 51 51 50 49 49 48 47 47 47 46 46 46 45 45 45 44 44 44 44 44 44 44 42 42 41 39 39 41 40 41 43 44 46 45 48 50 51 51 50
59 58 57 56 55 54 53 53 53 53 51 50 49 50 51 50 50 50 51 49 50 50 51 51 51 50 50 50 49 48 47 47 47 47 46 46 45 44 44 45 45 44 44 44 44 43 44 43 42 41 40 38 39 40 40 43 44 44 45 48 51 51 51
58 57 56 56 54 54 55 54 53 52 51 50 49 49 49 49 49 49 49 49 49 50 50 50 50 49 49 48 48 47 47 48 46 46 45 45 44 44 44 44 44 43 44 44 44 44 44 43 43 42 42 40 37 36 39 39 41 42 47 45 49 50 50
57 56 55 55 54 55 55 54 52 51 50 49 49 49 48 48 48 48 48 48 48 49 49 49 49 49 49 48 47 46 46 47 46 45 45 45 44 44 44 44 43 43 43 44 44 44 44 43 43 43 43 41 40 37 35 35 38 39 44 46 43 48 51
57 56 55 55 55 54 53 53 52 51 49 49 49 49 48 48 48 49 47 47 47 48 48 49 49 48 48 47 47 46 46 47 46 46 46 45 45 45 45 44 44 43 44 43 43 44 44 43 43 43 43 43 43 39 38 35 36 41 41 46 47 46 49
57 56 56 56 55 54 53 52 51 49 48 49 49 47 47 47 47 46 47 47 47 47 47 48 48 48 48 46 47 46 46 46 45 45 45 46 45 45 44 43 43 43 43 43 43 43 43 44 43 43 43 43 42 41 39 38 35 41 45 41 45 49 47
57 57 56 55 54 53 53 51 50 48 47 48 46 47 46 46 46 46 46 46 46 46 47 47 47 47 47 46 46 46 46 46 45 45 44 45 45 44 44 43 43 43 43 43 43 43 43 43 43 43 43 42 42 41 41 39 37 37 44 43 44 46 48
56 56 56 55 54 53 52 51 49 47 47 46 46 46 46 45 45 45 46 46 46 46 46 46 47 47 46 45 45 45 45 46 45 44 45 44 44 44 44 44 43 43 43 43 43 43 44 43 43 43 43 43 42 42 41 40 38 38 42 46 45 45 47
55 55 55 54 53 52 50 49 48 47 45 45 46 45 45 45 44 45 45 44 44 45 45 46 46 46 46 45 45 46 45 45 44 44 44 44 44 44 43 44 44 44 43 42 43 44 43 43 42 43 43 42 42 42 43 40 39 38 38 43 44 47 46
54 54 53 52 51 50 49 48 48 46 45 44 45 44 44 43 44 44 44 43 44 44 44 45 45 46 46 46 45 45 45 45 44 44 44 44 44 43 44 44 44 43 44 43 42 42 42 42 42 42 43 43 42 42 43 42 40 38 38 40 43 43 45
53 53 52 51 50 49 48 47 47 45 44 44 43 43 43 43 43 43 43 43 43 43 43 44 44 45 46 46 45 45 44 45 45 45 44 44 43 43 43 43 45 43 43 42 42 42 42 42 42 43 43 43 42 42 43 43 42 40 39 38 41 43 44
51 52 51 50 48 48 47 46 46 45 44 43 43 43 43 43 42 42 42 42 42 42 43 44 44 44 44 45 45 44 44 44 44 44 44 43 45 43 44 45 45 42 42 42 42 43 42 42 43 43 43 43 43 43 43 42 42 41 39 38 40 43 44
50 50 50 48 47 46 46 46 45 45 44 43 42 42 42 42 42 41 41 41 41 41 42 43 43 43 44 44 44 44 45 44 44 44 44 44 43 43 44 43 43 43 42 42 43 42 42 42 42 43 43 44 43 43 41 41 42 41 40 40 40 40 43
49 49 48 47 47 46 46 45 45 44 44 43 42 41 41 41 42 41 41 41 41 41 41 41 41 42 42 43 44 45 44 44 44 44 43 43 43 43 43 43 43 42 42 42 43 43 42 43 43 43 44 43 43 41 41 41 41 40 40 40 41 42 42
49 49 48 47 47 46 46 45 44 44 44 42 41 41 41 41 41 41 41 41 41 41 41 40 40 41 42 43 44 44 44 45 45 44 43 43 43 44 43 43 42 43 43 43 44 45 44 44 44 44 44 43 42 41 41 41 40 40 40 40 40 40 42
49 49 48 47 46 45 45 44 44 43 43 42 42 40 41 40 40 40 40 40 41 41 41 41 41 41 41 41 42 44 44 45 44 44 43 42 42 43 44 43 43 42 48 52 49 47 47 46 45 43 43 42 42 41 40 41 40 40 40 40 40 42 41
48 48 47 47 46 45 45 44 43 43 42 41 41 41 40 40 40 40 40 40 40 41 41 42 45 44 44 43 42 43 43 43 44 44 44 43 44 44 43 43 44 49 49 47 47 45 44 44 45 44 43 43 42 41 41 40 40 40 40 39 40 39 38
49 48 47 47 45 45 44 44 43 42 41 41 40 42 40 39 39 40 40 40 40 40 41 43 43 41 41 42 43 43 44 43 43 43 44 44 43 45 45 44 43 45 47 45 46 45 43 43 42 42 42 43 43 42 41 40 40 41 40 39 40 39 39
48 48 47 46 46 45 44 43 43 42 41 40 41 40 39 39 38 39 39 40 40 41 42 43 40 41 41 42 44 43 43 43 42 41 42 42 44 44 45 43 43 43 44 46 47 44 43 43 42 41 41 41 41 41 41 41 40 40 40 39 38 39 39
48 47 47 46 45 45 44 43 43 42 41 41 40 39 38 38 38 38 40 40 40 41 41 42 40 41 41 41 41 42 42 42 43 41 40 41 42 44 44 44 43 44 44 46 46 43 43 42 42 41 41 41 41 42 40 39 41 42 42 40 39 39 40
47 47 46 46 45 45 44 43 43 43 42 41 39 38 37 38 38 38 39 40 39 39 40 42 40 40 40 40 40 41 41 41 41 40 41 41 42 42 41 42 42 43 43 43 43 43 42 42 40 40 41 41 42 43 41 41 40 40 42 42 41 39 41
47 46 46 46 45 45 44 43 42 42 42 41 39 38 38 37 38 39 39 38 39 39 41 41 39 40 39 39 39 40 40 40 40 40 40 40 40 40 40 40 41 41 41 42 44 43 42 40 39 39 40 41 41 42 42 42 43 44 44 43 42 42 42
47 47 46 46 45 44 43 43 42 42 41 39 39 38 37 38 39 38 38 39 40 38 39 39 39 39 39 39 40 40 39 39 39 40 40 40 40 40 40 40 41 41 42 42 42 40 40 41 39 39 39 40 41 41 42 43 43 43 44 43 43 43 43
46 46 46 46 45 43 43 42 42 42 40 39 39 38 38 38 38 38 38 39 39 38 39 40 39 39 39 38 39 38 38 39 39 39 39 39 39 40 40 41 43 42 42 41 41 39 38 40 39 39 39 39 40 40 41 44 43 41 41 41 41 40 40
48 47 46 45 45 44 44 43 42 43 41 40 39 39 38 37 36 38 39 37 39 39 39 40 39 39 39 39 39 38 38 38 37 38 38 39 39 39 40 46 46 43 41 41 40 38 38 40 40 39 39 38 39 40 41 43 42 42 42 41 41 41 40
48 47 46 46 45 44 43 43 43 43 42 42 41 39 40 37 36 37 37 38 45 40 39 42 40 39 38 39 39 37 38 38 39 37 36 39 40 40 40 41 43 43 43 42 38 38 37 39 40 39 39 38 38 39 41 41 40 40 41 41 41 42 42
48 48 47 46 45 45 45 44 42 42 41 42 41 39 40 38 38 38 39 40 43 39 39 40 41 39 39 39 39 38 37 40 40 39 36 41 41 41 40 40 42 39 38 38 38 37 37 38 40 40 39 39 38 39 42 40 41 41 40 40 40 41 41
48 48 48 47 46 45 45 44 43 42 41 41 41 39 39 38 39 39 38 39 40 39 41 39 40 39 39 39 39 38 37 38 37 37 36 39 37 38 40 41 41 41 39 38 38 37 38 38 39 42 41 40 40 41 40 40 40 40 39 40 40 41 41
49 48 48 47 46 44 45 45 44 43 42 41 41 40 39 39 39 39 38 39 40 39 42 44 37 41 40 39 39 39 38 40 38 38 39 38 38 39 39 40 40 40 38 38 37 37 37 38 38 43 42 38 38 37 40 41 40 40 39 39 40 40 41
48 48 47 47 46 44 44 44 43 43 42 42 42 40 39 39 39 39 39 40 40 40 38 41 42 41 40 39 39 39 38 38 37 41 40 42 40 40 39 39 39 40 38 38 37 37 37 37 40 41 38 37 38 37 39 40 39 38 38 39 39 38 39
49 48 47 46 46 44 43 43 44 44 43 43 42 41 40 39 39 39 40 39 40 40 40 38 41 40 41 39 38 38 38 37 38 39 39 39 39 38 39 39 40 38 38 37 37 37 37 38 40 38 37 37 37 38 39 39 38 38 37 38 38 37 38

ECMWFFLT1_sfc_temp_108.txt.gz
Temp
71 69 68 67 67 68 69 69 69 70 71 72 72 74 74 73 72 72 72 71 72 72 72 71 69 69 69 69 68 68 69 68 68 68 67 68 66 64 67 66 67 67 67 66 66 67 68 62 61 65 65 64 64 64 65 67 67 65 64 66 68 69 68
72 69 67 67 67 67 67 68 68 70 71 72 74 73 73 73 72 72 72 71 70 71 72 70 69 69 67 67 66 66 66 66 66 67 67 67 67 66 66 65 66 66 67 66 66 67 66 65 64 63 62 63 64 64 64 65 66 66 67 66 67 68 67
69 67 68 67 67 67 66 65 66 68 70 71 72 73 72 73 72 72 72 71 70 71 71 69 68 67 66 66 65 65 65 64 65 65 65 66 66 65 66 67 66 66 66 65 65 66 65 66 63 63 64 63 61 62 64 64 64 65 66 66 66 69 68
67 67 66 65 67 66 65 65 67 67 70 71 71 70 70 71 71 71 70 71 70 69 70 69 68 68 67 66 65 65 64 64 64 64 64 64 65 64 65 65 64 64 63 62 62 64 63 62 64 64 65 67 66 63 63 65 65 65 67 67 67 68 67
68 67 67 65 66 67 66 65 66 67 69 70 70 70 70 71 69 69 69 69 69 68 68 68 68 68 67 67 66 65 64 64 64 64 63 63 63 63 63 64 63 64 63 63 63 63 63 63 63 63 64 65 68 67 68 65 67 67 69 68 70 69 69
70 70 69 68 68 67 67 66 66 67 69 69 70 69 69 69 69 68 68 67 67 67 67 67 66 67 66 66 65 64 64 63 63 63 62 61 63 63 62 63 64 64 63 63 63 63 63 64 63 62 64 65 61 65 68 69 67 70 71 70 70 70 70
71 70 69 68 69 69 67 66 67 69 70 69 69 70 70 71 69 68 68 67 67 67 67 66 66 67 66 66 65 64 63 63 63 62 62 61 62 62 63 63 62 63 62 63 63 62 61 61 60 59 60 63 63 65 68 70 70 68 69 72 72 71 70
71 69 68 70 69 68 67 67 69 69 69 69 69 69 71 69 68 67 67 66 66 66 66 65 66 65 65 65 64 63 63 63 62 62 62 61 60 60 61 62 61 62 61 62 62 62 62 61 60 59 59 58 61 63 63 68 69 67 66 69 72 71 70
70 69 68 68 68 67 66 67 67 68 69 69 68 68 68 68 67 67 67 67 66 66 66 66 66 65 64 63 63 62 61 63 61 61 61 61 60 60 60 61 61 60 61 62 62 61 62 61 61 61 60 59 57 58 61 61 63 64 68 65 69 71 70
68 67 67 66 65 66 66 66 66 68 68 68 67 68 67 68 67 67 67 66 65 66 65 65 65 64 64 63 63 62 61 62 62 61 62 61 61 61 60 60 61 61 60 61 61 61 61 61 62 62 62 59 58 57 56 57 59 59 65 66 63 68 70
69 66 66 66 65 64 64 65 66 67 67 68 67 67 67 67 66 66 66 65 65 65 65 66 66 64 63 63 62 63 63 62 62 62 62 62 61 61 61 61 61 61 61 61 60 61 61 61 61 62 61 61 60 56 55 54 56 61 60 64 66 65 68
67 66 65 65 64 64 64 65 66 67 67 67 67 66 66 67 66 66 66 65 65 65 65 64 64 64 64 62 62 62 62 63 62 61 61 61 61 61 60 59 60 60 61 60 61 61 61 62 62 63 62 62 60 57 56 56 53 60 62 59 63 67 66
67 67 65 63 63 65 66 66 67 66 66 68 67 67 67 67 66 66 66 65 65 65 65 64 64 63 63 62 63 63 62 63 62 61 61 62 61 61 61 60 61 61 62 62 61 61 62 62 62 62 62 61 61 59 58 56 54 55 62 61 62 64 67
65 65 64 64 64 65 66 67 68 68 68 67 67 67 67 67 68 66 66 66 66 65 64 63 64 63 63 62 63 62 63 63 62 61 61 60 62 61 61 61 61 60 61 61 62 62 62 62 62 62 62 62 61 60 59 57 55 56 60 64 63 63 65
64 63 62 64 65 66 67 67 67 68 66 67 69 69 68 67 67 67 67 67 66 66 65 65 64 64 63 62 61 62 62 63 62 61 61 61 61 61 60 61 60 60 61 60 61 62 62 62 62 62 62 61 61 60 61 58 57 56 55 61 62 66 65
62 62 62 63 64 66 67 67 69 67 67 67 68 68 67 67 67 67 67 66 66 66 65 65 64 64 63 62 62 62 62 62 61 60 60 61 62 61 60 60 60 60 60 60 60 60 61 61 62 61 60 62 60 60 61 60 57 56 56 57 61 62 62
61 61 62 63 64 66 67 67 68 67 67 67 67 67 67 68 67 67 66 66 66 65 65 64 64 64 64 63 63 62 63 62 62 62 62 62 62 61 60 59 59 60 60 59 60 60 61 60 61 61 60 61 61 59 60 60 59 58 57 56 59 62 62
60 61 62 64 65 66 66 67 67 68 66 66 67 66 67 68 67 67 65 66 66 65 65 65 64 64 63 63 64 63 63 63 62 62 61 61 60 61 60 60 60 61 60 59 59 60 60 58 60 60 59 61 60 60 60 60 60 60 58 56 58 61 62
61 62 64 64 65 66 66 66 67 67 68 66 66 66 66 66 67 67 67 67 67 66 66 66 65 65 64 64 63 63 63 62 62 62 62 62 62 61 60 61 60 61 60 58 58 58 59 58 59 59 59 59 60 59 59 59 60 59 59 59 58 58 61
62 63 64 65 66 66 66 66 66 67 67 66 65 65 65 66 66 67 67 67 66 66 66 65 65 64 64 64 63 63 62 62 62 62 62 62 62 62 61 61 60 60 59 59 58 58 58 58 58 58 59 58 59 58 58 59 59 59 59 58 59 60 60
64 64 65 66 66 65 65 65 66 66 66 65 64 65 65 65 66 67 67 67 66 66 65 65 65 65 65 64 63 63 62 61 62 61 61 62 62 62 61 61 61 61 60 59 58 58 58 57 58 58 59 58 58 57 57 58 58 58 58 58 58 58 59
65 66 66 66 64 63 64 65 64 64 64 64 62 64 65 66 65 66 66 65 66 65 64 64 64 64 64 64 64 62 62 62 61 61 61 61 61 61 62 61 61 60 57 53 48 50 50 50 56 56 57 58 57 56 56 57 57 57 57 57 57 58 58
65 65 65 63 62 60 62 62 62 62 61 61 61 63 64 64 65 64 63 64 64 63 63 64 59 54 55 63 63 63 62 62 62 62 61 60 60 61 61 61 59 54 52 51 50 46 44 45 46 52 56 56 55 55 55 55 56 56 55 55 55 55 55
64 64 63 62 59 58 58 60 61 61 59 60 60 60 60 61 62 62 63 62 62 61 62 61 47 47 46 45 59 62 62 62 62 62 61 61 60 61 61 62 61 57 56 55 54 44 45 44 43 43 44 45 49 54 54 53 54 54 54 54 55 55 54
63 63 63 62 60 58 57 58 58 57 56 55 56 56 55 56 57 60 61 62 61 61 62 50 44 44 45 45 48 60 63 62 61 62 62 62 63 62 61 61 61 61 60 59 60 59 53 45 43 44 42 43 44 43 45 51 52 52 52 52 53 54 54
63 62 62 59 57 59 60 59 58 56 54 53 50 47 48 51 56 59 60 61 61 62 62 43 43 41 42 42 42 50 65 63 62 62 62 62 61 61 61 61 60 60 60 54 57 60 60 60 49 43 44 44 43 44 43 42 43 52 54 53 53 53 54
60 60 59 58 58 58 57 56 54 55 53 51 49 49 51 53 57 59 60 61 61 62 60 44 41 41 42 40 42 45 64 63 62 62 61 60 59 60 60 60 60 60 60 60 59 58 59 59 60 61 60 62 61 57 49 46 47 45 50 55 54 53 55
60 60 60 58 58 58 57 55 55 55 53 53 53 53 54 57 59 60 61 61 61 60 58 41 41 40 41 40 40 43 62 61 59 59 59 60 60 60 60 59 59 59 60 60 56 51 55 58 59 60 60 60 61 60 60 60 58 57 56 56 56 56 56
60 60 60 59 59 58 57 56 56 57 57 57 57 58 59 60 59 59 60 61 60 58 54 39 40 40 39 40 39 56 59 56 58 60 60 60 61 61 61 60 60 59 59 58 46 37 44 51 58 59 58 59 60 60 61 56 49 50 54 56 56 56 56
60 60 59 59 59 58 58 57 58 59 58 58 58 58 59 59 59 59 59 60 59 58 54 42 39 39 40 38 45 57 57 59 60 60 60 60 61 60 60 60 60 60 59 59 43 37 40 40 57 59 58 58 58 59 60 61 52 47 44 43 43 43 42
59 58 59 59 59 58 59 59 59 59 58 58 58 59 59 58 58 59 58 59 60 58 56 45 38 39 39 39 47 58 60 61 60 60 60 60 61 61 59 51 53 59 58 57 38 38 38 45 57 58 57 57 57 57 59 59 59 58 50 48 46 45 44
59 58 58 58 57 55 55 55 57 58 59 59 58 59 58 58 57 57 58 59 55 57 56 48 38 39 39 40 47 59 61 63 60 59 60 59 60 61 60 56 49 50 54 48 35 39 37 44 57 58 57 57 56 56 57 57 56 56 57 57 58 59 58
55 55 53 52 53 54 55 55 56 57 57 58 59 58 56 57 55 56 57 58 56 58 56 54 47 38 40 39 40 56 63 61 59 59 60 60 59 60 60 60 52 39 37 38 37 36 38 36 51 57 57 57 55 54 57 56 56 56 56 57 58 59 59
52 51 52 52 53 52 53 54 55 57 56 57 57 56 56 57 56 55 56 57 58 57 56 55 49 38 39 39 40 42 61 61 61 60 61 60 61 60 60 61 62 44 37 40 37 37 37 38 39 53 57 57 56 52 47 54 55 51 57 59 59 59 60
52 51 52 53 52 52 55 55 56 56 57 55 54 54 55 55 56 55 55 56 57 56 54 51 53 40 39 39 40 39 54 62 60 62 59 61 61 62 62 62 62 45 36 40 38 38 37 37 36 50 56 46 40 38 49 53 56 59 60 60 60 59 59
52 52 52 54 54 53 55 56 56 57 55 55 54 54 54 54 55 54 55 57 57 56 56 53 46 49 40 39 39 40 37 48 44 56 60 60 60 61 62 61 58 39 38 38 38 38 38 37 39 53 43 39 39 38 41 56 59 59 59 59 58 58 58
52 52 53 54 55 54 55 56 56 56 55 55 55 54 52 53 54 54 54 55 56 56 55 55 47 45 47 37 40 38 39 37 40 54 58 62 62 61 62 61 55 38 38 38 37 38 39 39 50 43 39 39 38 40 54 59 60 59 57 58 57 57 57

ECMWFFLT1_sfc_temp_111.txt.gz
Temp
73 72 72 72 73 72 71 72 72 72 74 76 75 76 78 76 75 74 74 74 75 75 75 73 72 72 72 71 71 71 71 71 72 71 70 71 69 67 70 69 70 71 71 70 69 68 67 61 62 67 68 66 67 67 68 69 70 68 67 68 71 72 71
74 72 72 73 71 70 69 71 73 75 75 75 76 75 76 76 75 74 75 74 74 74 74 72 71 71 69 69 69 69 69 69 69 70 70 69 70 69 69 69 69 70 71 70 70 70 67 66 65 63 62 65 66 66 67 68 69 68 69 68 69 70 70
72 71 71 69 69 70 69 70 70 71 73 73 74 76 76 79 74 75 74 73 73 74 73 71 70 69 68 68 68 68 68 67 68 68 68 68 69 68 69 69 69 68 69 69 68 69 69 68 66 66 66 63 60 64 66 66 67 68 68 69 69 71 70
71 70 69 68 69 68 68 68 69 70 72 72 72 72 73 75 73 74 73 73 72 72 72 72 70 70 69 68 68 68 68 67 67 67 66 67 67 67 68 68 67 66 65 65 65 66 66 65 66 66 68 70 69 65 64 68 67 68 70 70 71 71 70
71 70 69 68 69 68 68 68 69 70 70 71 71 71 70 72 73 71 72 72 71 71 70 71 70 70 70 70 69 68 67 67 67 67 66 66 66 66 66 67 66 66 66 66 66 66 65 65 65 66 66 68 70 70 71 67 68 70 72 71 73 72 71
72 72 70 69 70 69 69 68 68 68 69 69 69 70 70 70 72 70 70 70 69 69 69 69 69 69 69 69 68 67 66 66 66 66 65 64 66 65 65 66 67 67 66 66 66 65 66 66 65 64 67 68 64 67 72 71 70 72 73 73 73 73 73
72 72 71 71 71 70 69 69 69 69 69 69 69 69 71 72 72 71 70 69 69 69 69 69 69 69 69 69 67 66 66 66 66 65 64 64 64 65 66 65 65 65 65 65 66 65 64 64 62 61 62 66 66 67 71 73 72 70 71 74 74 74 73
71 72 72 72 71 70 70 69 70 71 70 70 71 71 73 71 71 70 69 69 69 68 68 67 68 68 68 68 67 66 66 66 65 65 64 64 63 63 64 64 64 64 64 65 65 65 65 63 63 62 61 60 63 65 65 70 71 69 68 71 74 74 73
72 73 72 72 71 71 71 70 70 71 71 71 72 72 71 71 69 69 69 69 68 68 68 68 68 68 67 66 65 65 64 66 64 64 64 63 63 63 63 64 64 63 64 65 65 64 64 64 64 64 63 61 58 59 63 63 65 66 71 67 71 73 72
72 72 72 71 71 72 71 71 71 72 72 72 71 73 70 71 69 69 69 68 68 68 68 68 67 67 66 66 65 64 64 65 65 64 64 63 63 63 63 63 63 63 63 64 64 64 64 64 65 64 65 61 60 58 57 58 61 61 67 69 65 70 72
72 71 72 72 72 71 71 72 72 69 69 71 72 72 70 69 69 69 68 67 67 67 67 68 68 67 66 65 65 65 65 65 64 64 64 64 63 64 63 64 64 63 63 63 63 63 63 64 64 64 64 64 62 58 57 55 57 63 62 66 68 66 70
73 71 71 72 71 69 69 69 69 69 70 69 70 69 69 69 68 68 68 67 67 67 67 67 66 66 66 64 64 64 65 65 64 63 63 63 63 63 63 62 63 63 63 63 64 64 64 64 64 65 64 64 62 60 58 58 55 62 64 61 65 69 68
74 73 70 69 69 69 68 69 69 69 69 71 70 69 69 69 68 68 68 67 67 67 66 66 66 66 65 64 65 65 65 65 64 63 63 64 64 63 63 63 63 64 64 65 64 64 64 64 64 64 64 64 63 62 60 59 56 57 64 63 64 66 69
71 71 70 69 69 68 68 69 69 69 70 69 70 69 69 69 70 68 68 68 68 66 66 65 66 65 65 65 65 65 65 66 64 64 63 63 64 64 63 63 63 63 64 63 64 64 64 64 65 64 64 64 63 63 61 59 57 57 61 65 64 65 67
69 68 68 69 68 68 68 68 69 70 69 70 71 71 70 69 69 69 69 69 68 68 67 67 66 66 65 64 64 64 64 65 64 64 63 63 63 63 63 63 62 62 63 62 63 64 64 64 64 64 64 64 63 62 63 60 58 57 56 61 63 67 66
69 67 67 67 67 68 68 68 70 69 70 70 71 71 70 70 69 70 69 68 69 68 67 67 66 65 65 64 64 64 64 64 63 63 62 63 63 63 62 61 62 62 62 62 62 62 62 62 64 63 62 64 62 62 62 62 59 57 57 58 62 63 64
68 67 66 66 66 67 68 68 69 70 70 70 70 70 70 70 70 69 68 68 68 68 67 66 66 66 66 65 65 64 65 64 64 64 64 64 63 63 62 61 61 62 62 61 62 62 62 62 62 63 62 63 62 61 61 61 61 59 59 57 60 63 64
66 65 65 66 65 66 67 68 69 70 70 69 70 70 69 71 70 69 67 68 68 68 67 67 66 66 65 65 66 65 65 65 64 64 64 63 63 63 62 62 62 62 62 61 61 61 61 60 61 62 61 62 62 61 61 61 61 61 59 58 59 63 64
65 64 65 65 65 66 67 68 69 70 71 70 69 69 69 69 69 69 70 69 69 69 68 67 67 67 66 66 65 65 65 64 64 64 64 64 64 63 62 62 62 63 62 60 60 59 59 59 60 60 60 60 61 61 59 60 61 60 60 60 60 60 62
64 63 64 65 65 66 67 69 70 70 70 70 69 68 69 69 69 69 70 69 68 68 68 68 67 66 66 66 65 65 64 64 64 63 64 64 64 63 63 63 62 62 61 60 59 59 58 58 59 59 60 59 60 59 58 60 60 60 60 59 60 61 61
64 64 64 65 65 66 68 70 70 70 70 68 68 69 68 68 68 69 69 69 69 68 68 67 67 66 66 65 64 64 64 63 63 63 63 64 63 63 63 63 63 62 61 60 59 58 58 56 58 58 59 59 58 57 58 58 59 59 59 59 59 59 60
65 65 65 65 65 66 68 69 70 69 68 68 68 68 67 67 66 68 68 68 68 68 66 66 66 65 65 64 65 64 64 64 63 63 63 63 63 63 63 63 62 61 58 55 52 52 53 52 55 55 56 57 57 56 56 57 58 58 57 57 57 58 58
65 65 64 64 65 66 68 68 68 67 67 66 64 66 66 64 66 67 67 66 66 65 63 64 56 49 52 64 64 64 63 64 64 63 62 62 62 63 63 63 60 57 56 54 52 48 46 46 49 53 55 56 55 55 55 55 56 56 55 55 55 55 55
65 64 64 64 65 66 68 69 66 66 64 63 62 59 59 61 59 58 59 61 60 59 60 59 48 48 47 47 61 64 63 63 64 63 63 62 62 62 63 63 60 57 56 54 54 47 46 45 44 44 45 48 51 54 54 54 54 55 54 54 55 55 54
64 64 64 64 64 66 64 64 64 64 62 61 61 60 58 58 57 59 61 63 60 60 62 50 46 45 47 46 48 60 64 63 63 63 63 63 64 63 62 62 61 61 61 60 60 59 51 45 44 43 43 43 43 44 46 52 53 53 53 52 53 54 54
65 65 65 64 63 62 61 63 62 61 60 59 59 59 60 59 60 61 61 60 61 62 62 46 45 45 46 46 43 51 66 65 63 63 64 64 65 64 62 61 61 61 62 57 58 61 61 59 49 44 45 45 45 43 41 40 43 52 55 53 53 53 55
66 65 64 63 62 63 63 61 60 61 60 58 57 58 59 58 59 59 60 61 62 63 63 47 44 43 45 43 44 46 65 64 63 64 64 64 63 62 62 62 62 61 62 62 61 59 59 59 59 60 59 60 61 56 45 42 41 41 46 55 55 54 56
64 64 63 62 61 62 62 61 60 59 59 57 57 57 58 58 59 59 61 62 63 63 61 44 44 43 42 42 42 45 61 63 64 64 63 62 62 62 62 62 62 62 61 61 59 55 56 57 57 58 60 61 62 63 62 59 58 60 59 58 57 57 57
64 62 61 62 61 61 60 60 59 59 59 60 60 60 59 60 59 60 62 63 63 63 56 41 42 42 41 42 41 57 60 62 62 62 61 62 63 63 63 62 61 61 61 60 46 37 46 52 56 57 59 60 61 62 63 59 54 54 58 59 58 58 58
62 61 61 61 61 60 59 59 57 58 59 59 59 59 59 59 61 62 62 63 62 62 54 43 41 41 41 39 47 59 60 61 61 61 61 62 63 63 63 63 63 62 61 59 43 40 40 41 55 58 59 59 59 61 61 62 49 46 45 43 44 44 44
62 61 60 61 61 61 60 60 59 60 59 59 59 60 61 62 62 62 61 62 63 62 57 46 39 41 40 40 50 59 61 61 61 61 61 62 63 63 61 55 57 61 61 57 37 39 38 45 55 57 58 57 58 59 60 60 60 59 51 49 49 47 45
63 62 62 61 61 60 60 60 60 61 62 62 60 61 62 62 62 62 62 63 58 60 57 47 39 40 40 40 50 59 61 62 61 61 62 61 62 63 61 58 54 54 55 48 36 41 37 45 54 56 56 57 57 57 57 58 57 57 58 58 59 61 60
64 63 62 60 60 59 60 60 60 61 62 63 61 61 60 61 60 60 60 62 60 61 57 54 47 39 41 41 43 57 60 61 62 61 61 61 61 62 61 60 55 43 39 39 39 36 38 37 49 55 56 57 56 55 57 56 57 57 57 57 60 61 61
60 59 59 58 58 59 60 59 59 60 60 61 61 59 56 59 59 59 60 61 60 60 58 56 48 39 40 40 41 44 56 58 63 62 62 62 62 62 62 62 62 47 39 40 38 38 37 37 39 50 55 57 57 54 50 55 56 52 57 61 61 61 62
55 54 54 54 53 54 56 58 58 59 60 61 58 56 57 58 59 59 59 58 58 59 58 54 53 40 40 40 40 40 51 57 54 59 62 63 63 63 63 64 63 47 38 40 38 38 38 38 37 47 55 47 44 41 52 55 56 58 62 61 61 61 61
53 53 53 54 54 55 56 57 58 59 59 57 54 55 55 58 58 57 57 57 58 58 58 56 48 49 40 39 40 40 40 47 44 52 61 62 62 64 65 63 55 41 38 39 38 38 38 38 39 48 43 43 43 41 44 55 57 61 61 60 60 59 59
54 54 54 54 55 55 56 58 58 57 55 55 56 57 58 57 57 56 55 56 57 58 59 58 48 46 46 38 40 39 39 38 38 50 55 61 64 65 64 62 51 37 39 38 38 38 39 39 49 44 42 41 40 42 53 55 60 61 58 59 59 59 59

ECMWFFLT1_sfc_temp_114.txt.gz
Temp
70 70 71 70 71 71 71 71 70 71 73 74 73 74 74 73 72 71 71 70 70 70 69 68 67 66 67 67 66 67 66 65 65 63 62 63 60 60 63 63 63 65 65 63 64 60 58 52 54 60 61 59 59 59 61 61 63 60 59 59 62 63 61
72 72 72 71 70 70 70 69 70 72 73 73 74 74 74 72 72 71 71 70 69 69 69 67 66 66 65 64 64 63 63 63 63 63 62 61 62 61 61 62 63 62 63 63 62 61 59 55 55 55 54 59 59 59 58 60 60 61 61 60 63 62 61
71 71 70 69 69 69 68 68 69 70 70 70 72 73 73 72 71 71 71 70 68 69 68 66 65 64 64 63 63 63 63 62 62 62 61 61 62 61 61 62 61 60 61 60 59 59 60 61 56 56 56 55 53 55 58 58 60 61 61 62 61 63 62
70 70 67 67 68 67 67 67 69 69 70 70 69 69 70 70 69 70 69 69 68 67 67 67 64 64 63 63 63 63 63 62 61 61 61 61 60 60 60 59 58 58 57 57 55 57 57 56 55 57 59 61 59 54 57 61 61 61 62 61 61 62 62
70 69 67 66 67 67 67 67 68 68 68 68 68 68 68 69 68 67 68 67 67 66 65 65 64 64 64 64 62 62 62 62 62 61 60 59 60 59 59 59 58 59 58 57 58 59 57 56 56 56 58 59 61 58 61 59 61 61 62 62 63 61 61
70 70 69 67 68 67 67 67 67 66 67 66 67 67 67 69 67 66 66 65 64 65 64 64 64 64 63 62 62 62 61 61 60 60 58 58 59 58 58 59 59 59 58 59 59 58 57 58 57 53 57 59 55 57 61 60 57 61 64 62 65 63 63
70 70 69 69 69 68 68 67 67 67 66 66 67 66 67 69 68 67 67 65 65 64 64 63 63 64 63 63 62 61 60 60 60 60 59 59 59 59 59 57 58 58 57 59 58 58 56 55 53 53 53 55 58 57 61 62 63 61 63 64 65 65 64
71 70 70 69 69 68 69 68 68 68 67 67 68 68 69 68 67 66 65 64 64 63 63 62 64 62 62 62 61 60 60 60 60 59 58 58 59 58 58 57 58 57 57 57 56 57 58 57 55 54 53 50 52 56 54 60 60 61 60 62 66 64 63
71 70 69 69 69 69 69 68 68 68 68 68 69 69 68 68 66 66 65 65 64 63 63 63 63 62 61 60 59 59 59 62 59 59 58 58 58 58 57 58 57 56 57 58 58 57 56 58 57 57 55 52 48 48 52 52 55 57 63 58 62 63 62
70 70 69 69 69 69 69 68 68 69 69 68 69 68 67 67 66 65 65 63 63 63 63 63 62 62 61 60 60 59 59 60 59 58 58 58 58 58 58 58 56 56 56 57 57 58 58 56 58 56 56 52 52 48 46 47 50 51 57 61 57 61 63
71 71 70 69 69 69 69 69 69 68 68 68 69 67 67 66 65 66 63 63 63 63 62 63 63 62 61 59 60 60 60 59 59 59 59 58 58 58 58 57 57 55 57 56 57 57 56 56 56 57 56 56 53 49 48 46 47 53 53 56 59 59 62
71 71 71 70 69 69 69 69 68 68 68 68 68 66 66 66 65 64 63 63 62 62 62 61 61 61 61 59 59 58 59 59 58 57 58 58 58 58 57 56 56 56 57 56 57 58 57 57 56 57 56 57 56 53 51 49 45 51 56 53 55 62 61
72 71 71 69 69 69 70 69 67 67 67 69 67 68 66 66 65 64 63 63 62 62 62 61 61 61 60 59 59 60 60 60 59 58 57 58 60 59 58 57 57 57 57 58 57 58 58 58 59 57 57 56 56 56 54 51 48 48 54 54 55 58 63
70 71 71 70 69 69 69 68 67 67 68 67 67 67 67 66 66 64 64 64 63 62 61 61 61 60 59 59 60 60 60 60 59 57 57 58 59 58 57 57 57 57 57 56 56 58 58 57 58 58 57 56 55 55 53 51 48 50 53 55 55 56 59
70 70 69 69 69 69 68 67 67 67 67 68 68 68 67 66 65 65 64 64 63 63 62 62 61 60 60 59 58 61 60 60 59 58 57 57 57 59 57 56 57 56 58 57 57 57 57 56 57 56 55 56 54 55 55 53 50 49 50 54 54 59 59
69 68 67 68 68 68 67 67 68 67 66 67 68 67 66 66 65 65 64 64 64 63 63 62 60 61 60 60 59 59 60 59 58 57 57 57 58 57 56 56 56 57 59 57 57 55 56 55 56 56 55 56 54 54 55 54 51 50 50 52 55 56 56
68 67 66 66 66 66 67 67 67 67 67 66 66 66 66 66 66 65 64 64 63 63 62 61 61 62 61 61 60 60 59 58 58 58 58 58 58 57 56 56 56 57 58 55 55 55 54 54 54 55 55 55 55 55 55 54 53 51 51 50 53 56 57
67 66 65 65 65 66 66 67 67 68 67 67 67 66 66 66 66 65 63 64 64 63 63 62 62 61 60 60 60 60 60 60 59 60 59 58 60 58 57 56 57 57 58 55 54 54 54 53 55 55 55 55 55 54 55 54 53 53 51 51 52 54 55
66 65 65 65 65 65 66 66 67 67 68 67 66 66 65 66 66 65 65 65 64 64 64 62 63 62 62 61 60 60 59 60 60 60 58 59 59 58 57 57 57 57 56 54 53 53 52 52 55 54 54 53 53 52 51 51 52 52 52 51 51 52 53
65 64 64 64 65 65 66 66 67 67 67 67 66 65 65 65 65 65 66 65 64 64 63 63 61 61 61 61 60 60 59 59 59 58 59 59 59 58 58 58 56 56 55 54 53 51 50 50 52 52 52 51 52 50 50 50 52 52 51 50 51 52 51
65 64 65 65 65 66 66 66 66 67 67 66 65 66 65 65 65 65 65 65 64 62 61 61 61 60 60 60 59 59 60 58 59 58 58 59 58 58 58 58 57 56 54 53 51 50 50 49 50 49 50 50 49 49 48 49 49 50 49 49 49 49 50
65 64 65 65 65 65 65 66 66 66 66 65 65 66 66 65 65 65 65 63 63 62 59 57 57 59 59 59 58 58 58 60 58 58 58 58 57 57 57 57 56 54 54 56 55 54 54 53 50 49 49 50 48 48 47 48 49 47 48 47 47 49 49
64 64 64 64 64 64 65 65 65 65 65 65 65 65 65 65 64 64 62 58 56 55 56 57 55 54 56 58 59 59 59 58 59 57 57 56 56 57 57 56 56 59 57 56 53 50 48 48 51 51 50 50 49 48 47 47 47 47 47 46 46 46 46
64 63 64 64 63 64 65 65 65 65 64 64 63 62 61 62 60 59 57 55 55 56 57 57 47 45 47 53 60 58 58 57 58 58 57 56 55 56 57 56 53 55 55 55 52 49 47 45 45 45 46 48 50 49 47 46 46 47 46 46 47 46 46
63 63 63 63 63 64 64 65 64 64 62 60 58 59 60 57 57 56 55 56 56 57 58 50 45 45 43 43 49 57 58 57 58 57 57 58 58 57 56 55 54 55 54 54 53 53 50 47 44 44 43 44 44 44 46 48 47 46 46 45 45 46 46
63 63 63 63 63 64 64 65 63 62 59 59 58 58 58 57 56 57 57 56 57 58 57 46 45 45 43 43 44 53 61 59 58 58 58 59 59 58 56 56 56 57 58 59 55 55 55 53 48 44 45 45 45 44 41 41 44 48 48 46 45 46 47
63 63 63 63 63 64 64 63 62 60 59 58 58 58 57 56 56 56 57 58 58 58 57 47 45 45 43 42 43 49 60 60 58 59 59 60 58 57 57 55 54 55 55 55 54 53 53 51 51 51 51 52 51 51 46 43 42 43 45 46 46 45 49
62 62 63 63 62 62 62 61 61 59 59 58 57 57 56 55 56 57 58 59 57 58 57 45 44 44 43 43 43 49 55 58 58 57 58 58 57 57 57 58 57 55 55 54 52 52 50 50 49 50 51 53 53 54 54 50 47 48 48 47 47 49 51
61 61 61 61 61 61 60 60 58 58 57 58 58 57 57 57 57 57 58 58 57 58 53 43 44 44 44 43 45 55 56 55 56 57 57 56 57 57 56 56 56 55 56 51 45 42 45 46 48 49 51 52 52 52 55 56 50 50 52 51 51 51 52
61 61 61 60 60 60 59 58 58 57 56 56 56 56 56 56 57 57 57 58 57 56 50 44 44 44 44 43 49 55 55 56 57 56 55 56 56 57 57 56 55 55 55 50 43 40 39 45 47 49 51 50 52 52 53 54 49 46 44 44 44 45 44
63 62 62 60 60 60 59 58 56 55 52 54 54 56 56 57 57 57 57 57 59 53 50 45 42 43 43 44 51 54 55 56 55 55 55 55 56 57 57 60 59 56 53 47 38 39 38 44 47 48 49 49 50 50 50 51 53 53 50 49 48 47 46
65 64 61 60 60 59 58 56 56 57 55 55 56 57 57 57 57 57 58 58 58 53 51 46 42 42 42 43 51 54 55 56 54 54 55 55 55 56 55 56 56 53 51 45 36 39 37 44 48 48 47 47 48 48 48 49 49 49 50 50 51 53 52
61 61 60 60 59 58 57 57 56 57 56 57 57 57 57 58 57 58 58 58 57 53 50 47 44 41 43 43 47 55 55 54 54 54 55 56 55 55 54 53 50 43 42 39 40 38 38 39 45 47 47 46 47 47 49 49 50 49 49 50 50 52 52
61 61 61 59 59 58 57 56 56 57 57 57 57 57 57 57 57 56 56 57 56 54 52 49 45 40 42 42 44 46 52 53 53 54 55 55 55 55 54 54 53 46 41 40 40 39 39 38 39 44 46 46 48 49 46 47 49 50 49 50 51 51 53
61 60 60 58 57 56 57 58 57 57 57 57 56 55 55 55 54 53 53 54 55 54 52 50 46 41 42 42 43 44 49 52 50 48 51 55 55 56 55 55 54 48 42 41 39 39 38 38 37 42 46 44 43 42 45 47 48 49 50 51 51 50 51
59 59 57 57 56 54 55 56 56 57 57 56 55 53 51 51 50 50 52 54 55 54 52 50 45 44 41 42 42 42 43 47 43 48 49 51 54 56 56 54 53 46 42 41 39 39 38 38 38 42 42 41 41 40 41 46 47 48 49 51 51 51 49
57 57 56 55 55 54 54 55 55 56 56 54 52 49 47 48 48 48 51 53 54 54 52 51 45 44 43 40 42 41 40 39 41 46 47 48 52 50 52 50 47 41 41 40 38 38 38 39 43 43 42 41 41 41 45 46 47 48 49 49 48 48 50

ECMWFFLT1_sfc_temp_117.txt.gz
Temp
66 65 66 66 66 66 66 65 65 66 66 66 67 67 67 66 65 64 63 63 63 63 63 61 59 59 61 61 60 59 59 58 57 57 55 55 53 57 58 58 58 59 59 56 54 51 48 48 49 55 55 54 56 54 56 56 55 54 55 54 55 56 54
67 66 66 66 65 66 64 64 65 66 65 66 67 67 67 66 66 64 63 62 62 62 63 61 60 60 59 58 58 58 58 57 58 57 55 54 54 54 53 54 53 54 55 55 55 54 50 46 49 49 50 54 53 51 53 53 54 54 56 55 56 59 57
66 66 66 65 65 65 64 63 64 63 63 64 66 66 65 65 65 64 63 62 61 62 62 60 59 58 58 57 57 57 57 57 56 57 56 54 55 54 53 53 53 51 52 53 52 52 51 49 47 49 49 50 49 48 52 54 55 54 54 55 55 56 57
65 65 64 63 64 65 63 63 62 63 63 63 63 64 64 64 63 64 62 62 61 62 61 60 58 58 57 57 57 57 57 56 55 56 56 55 55 54 54 54 52 52 51 50 49 50 49 47 47 50 50 52 50 49 53 55 54 55 56 55 54 55 56
66 65 64 63 65 65 63 62 62 62 62 62 62 62 62 62 62 61 62 61 60 59 59 59 58 58 57 57 55 56 55 55 56 56 54 54 54 53 53 52 51 52 52 51 51 51 51 49 49 48 49 51 52 53 55 54 55 54 55 56 57 55 57
67 66 65 64 64 64 63 62 62 61 61 61 61 62 61 62 62 60 60 59 58 58 57 57 56 56 56 56 57 56 55 55 54 54 53 52 53 53 51 51 52 52 51 51 52 51 50 50 49 46 49 50 49 49 53 54 53 54 56 57 58 56 56
66 65 65 65 64 64 63 62 62 61 61 61 61 61 62 62 61 61 60 59 58 58 58 57 57 57 56 56 55 55 54 54 54 54 53 53 52 52 52 52 52 51 50 52 51 51 51 50 48 47 47 46 47 49 51 54 55 55 57 57 59 58 55
66 65 65 65 65 64 63 62 62 62 61 61 62 62 62 61 61 60 60 58 58 57 57 57 58 56 56 56 56 55 55 54 54 54 53 53 54 53 52 52 52 51 50 51 50 51 51 51 50 48 46 45 44 43 47 50 51 54 54 55 58 59 58
66 66 65 65 65 66 64 64 63 63 63 62 62 63 61 61 60 60 60 58 57 57 57 56 56 56 55 55 54 55 55 56 54 53 53 53 53 52 52 51 52 51 52 52 53 51 50 51 51 49 48 46 43 41 42 43 45 48 55 53 53 56 58
66 65 65 64 65 65 64 63 63 63 63 63 62 62 60 60 60 60 59 58 57 56 56 56 56 55 54 54 53 52 53 54 54 52 51 52 51 51 51 51 50 51 51 52 52 53 52 50 51 49 49 48 46 42 41 40 41 44 48 54 53 53 57
66 66 65 65 65 64 64 63 63 62 62 62 63 62 61 60 60 61 58 57 55 56 56 56 56 55 54 53 54 53 53 52 52 52 53 52 52 53 52 53 52 50 50 51 52 51 50 50 49 51 49 49 47 45 42 41 39 43 47 50 54 53 56
67 66 65 65 65 64 64 63 63 63 62 62 61 60 60 59 58 58 58 56 56 56 55 55 55 54 54 53 53 52 53 53 53 52 52 53 53 53 52 51 50 51 51 50 49 50 51 51 50 49 49 50 50 46 45 44 42 41 49 49 49 54 54
67 66 65 65 64 64 64 63 63 62 61 62 61 60 60 59 59 58 57 56 55 56 55 54 55 54 54 53 53 53 53 52 52 51 51 52 54 52 51 51 50 50 50 49 49 50 49 51 50 50 50 49 47 47 46 45 44 43 47 50 49 52 55
66 66 65 65 65 64 63 63 63 63 62 61 62 61 60 59 59 58 57 56 56 55 54 54 55 54 53 53 53 53 53 53 52 51 52 52 54 53 52 51 50 51 50 51 49 51 52 51 50 52 51 48 48 47 46 47 45 46 47 50 50 51 53
67 66 65 65 64 64 63 63 62 62 62 62 63 61 60 59 59 58 57 56 56 55 55 55 54 53 53 53 53 54 53 53 52 51 52 52 52 53 51 51 51 51 51 51 50 51 51 50 51 49 49 50 47 49 48 48 46 45 45 47 47 51 51
67 66 65 65 65 63 62 62 63 62 62 62 62 61 60 59 59 58 57 56 56 55 55 54 53 53 53 53 52 53 53 53 52 52 53 52 52 51 50 49 49 51 52 49 48 48 49 49 49 49 49 49 47 47 48 47 46 44 43 45 47 49 50
66 66 65 66 64 63 62 62 63 63 63 62 61 60 60 60 59 58 56 56 55 55 55 54 53 54 54 53 52 53 53 54 54 54 52 52 52 51 49 49 49 49 49 49 48 48 48 48 48 47 47 48 47 47 47 46 46 46 44 45 47 48 50
65 66 65 65 63 63 62 62 62 63 62 61 61 60 60 60 59 57 56 56 55 55 55 54 54 54 53 52 53 54 55 55 54 54 53 52 54 51 50 48 49 48 48 47 46 46 46 46 47 47 46 46 47 46 47 46 45 44 43 44 44 47 48
65 65 65 64 63 63 62 62 62 62 63 62 60 60 60 59 59 57 57 57 56 56 56 54 55 54 54 53 55 56 56 54 54 54 53 52 52 50 49 49 49 49 48 47 45 44 44 44 45 45 44 44 45 44 43 44 44 44 43 43 42 44 46
65 64 64 64 63 63 62 62 63 62 63 62 60 59 59 58 58 58 58 57 56 57 56 55 55 54 55 55 56 56 53 53 54 54 54 53 52 51 51 50 49 48 47 46 45 43 42 43 46 43 45 44 43 42 42 42 43 43 41 42 42 43 42
64 64 63 63 63 63 63 63 63 63 63 61 60 60 59 59 57 58 57 57 57 56 55 55 55 54 55 56 55 54 54 54 55 53 52 52 51 51 50 49 48 47 47 45 45 43 42 43 42 43 43 44 43 42 41 42 42 41 41 42 41 40 41
64 63 62 62 62 63 63 64 63 63 62 60 60 60 59 59 57 57 57 56 56 56 55 54 54 54 53 54 53 53 53 54 53 51 51 50 50 50 49 48 47 46 50 55 55 52 50 50 44 44 43 43 44 43 41 41 43 41 41 41 41 41 39
63 63 63 62 62 62 63 63 63 63 62 61 60 60 59 58 58 57 56 55 54 53 52 53 55 54 54 54 53 54 53 52 52 50 51 50 49 50 49 48 51 58 58 56 53 50 49 49 51 48 43 43 43 42 42 41 41 41 42 41 39 39 40
63 62 63 63 62 63 63 63 63 62 62 61 60 59 59 58 56 55 54 53 51 52 52 54 50 46 48 51 54 52 51 51 50 50 50 50 49 49 48 48 48 54 54 54 49 48 46 46 45 45 46 48 49 44 42 42 41 41 41 42 42 40 39
62 62 62 62 62 63 63 62 62 61 60 60 59 57 57 56 53 52 52 52 51 51 51 51 45 45 47 49 52 52 50 51 51 50 50 51 50 49 48 48 47 50 47 46 45 46 46 46 44 44 43 44 43 44 45 46 45 42 41 41 40 41 40
61 61 62 62 62 62 62 62 61 59 58 58 57 55 53 52 52 52 53 51 50 51 50 45 44 45 47 47 48 52 52 51 51 51 50 51 51 49 48 47 48 48 51 56 53 46 45 46 48 45 44 45 45 44 41 40 43 46 43 41 41 41 41
61 61 62 62 62 62 61 61 60 59 57 57 56 53 51 51 51 51 52 51 51 52 50 45 44 45 45 45 47 50 52 52 50 51 51 51 52 50 49 48 48 48 47 49 46 45 44 42 42 43 43 43 45 48 47 44 42 41 44 44 42 42 45
61 60 61 61 61 61 61 60 58 57 57 56 54 52 51 51 51 52 52 52 52 52 51 44 44 44 44 44 46 47 48 51 51 49 51 50 49 50 49 50 49 49 47 45 46 46 44 42 42 43 42 44 45 45 46 46 42 41 42 42 42 43 44
61 61 61 61 61 60 60 59 57 56 55 54 52 51 50 52 52 52 52 52 51 51 50 42 43 44 43 43 47 51 47 47 48 48 48 48 49 51 51 50 48 46 46 45 47 46 45 42 41 42 42 42 43 45 46 50 44 44 44 42 43 45 46
60 60 60 60 60 60 58 57 56 56 54 53 52 51 50 51 52 52 51 51 51 49 49 44 43 43 43 44 48 49 48 48 47 47 48 49 49 49 49 48 48 46 45 43 43 40 42 45 41 43 42 40 42 43 44 46 46 47 46 45 43 43 43
60 60 60 60 60 59 58 57 55 55 53 52 51 52 52 52 52 52 51 51 51 48 48 45 43 43 43 44 48 49 48 49 47 47 48 48 49 47 49 58 54 46 45 43 40 39 41 43 41 42 42 41 41 41 42 43 46 47 46 46 46 45 45
61 59 59 60 59 58 57 56 55 55 54 54 53 53 53 52 50 49 51 52 53 50 48 46 43 43 43 44 49 50 49 47 47 48 48 47 47 49 47 55 54 48 46 43 39 39 40 43 40 41 41 41 40 39 41 40 41 42 44 45 47 47 47
60 59 60 59 58 57 56 55 54 54 53 54 53 52 51 51 50 50 50 51 51 50 47 45 44 42 43 44 47 51 50 47 48 47 46 49 49 46 46 46 47 43 43 40 39 38 39 42 41 39 40 40 39 40 40 40 43 42 42 43 43 45 46
59 59 59 58 58 56 55 54 53 53 52 53 53 52 51 51 51 50 50 49 48 48 48 46 44 41 43 44 46 49 51 50 46 45 44 46 48 47 46 45 44 44 41 41 40 39 39 40 42 40 39 40 41 41 42 40 43 46 42 43 44 44 45
59 59 59 58 56 54 54 54 53 52 53 53 52 51 51 49 49 48 49 48 48 47 48 48 45 42 42 44 45 47 49 46 44 42 42 43 46 47 46 46 45 43 41 40 40 40 39 39 38 40 41 41 41 40 41 41 41 41 42 43 43 43 43
59 59 58 57 55 53 53 53 53 54 53 53 52 51 50 49 48 47 48 47 47 47 47 47 45 44 42 42 43 44 45 42 41 45 42 41 41 42 43 47 49 46 41 41 40 40 40 39 39 39 39 39 39 39 39 39 39 41 39 41 42 42 41
59 58 57 56 54 52 53 53 53 53 53 53 52 49 49 49 49 49 47 46 45 44 45 46 44 44 43 41 43 43 42 41 42 42 42 40 43 40 38 43 47 44 42 42 41 40 39 39 40 39 38 38 39 40 40 39 39 41 40 41 41 40 41

ECMWFFLT1_sfc_temp_123.txt.gz
Temp
66 64 64 64 64 64 63 63 63 62 63 63 63 62 63 63 62 61 60 60 60 59 60 58 57 56 57 57 57 57 58 59 59 59 56 54 56 56 55 52 53 52 50 48 50 51 45 47 48 51 48 47 52 47 49 50 51 48 48 47 48 50 48
66 64 64 64 63 63 63 62 62 62 62 62 63 62 62 62 63 61 60 59 59 59 60 57 56 56 56 56 55 55 57 56 57 58 57 54 55 55 52 49 50 49 49 49 49 47 44 43 45 46 48 50 51 47 47 46 47 48 49 47 52 52 52
64 63 63 62 62 62 62 61 61 61 61 61 62 62 61 61 61 60 59 59 58 58 59 56 55 54 54 54 54 55 54 55 54 56 57 54 55 52 54 52 50 49 50 50 49 45 46 44 48 47 45 48 48 45 46 51 50 48 47 48 49 50 51
64 63 62 62 61 61 62 61 60 60 60 61 60 60 60 59 59 60 59 58 58 60 58 56 55 55 53 53 52 53 53 53 52 53 52 51 51 50 49 52 53 54 53 50 49 48 46 43 45 47 45 47 48 48 51 47 50 48 48 49 51 52 50
64 64 63 62 61 61 62 61 60 60 60 60 59 58 57 57 59 57 58 58 58 56 56 55 54 54 53 53 52 52 51 50 51 53 51 50 49 48 47 47 48 49 46 49 49 50 50 44 49 44 45 44 47 45 48 47 49 50 51 51 50 50 50
65 65 64 63 62 62 63 62 60 59 58 58 59 59 56 57 57 57 56 56 55 56 55 54 53 53 53 52 52 51 51 51 50 51 50 48 49 49 47 46 46 48 47 45 46 46 45 45 47 42 45 42 44 44 47 46 49 50 49 51 52 50 50
65 65 64 64 63 63 62 62 62 61 59 59 58 58 57 57 57 58 58 56 55 55 54 53 53 52 52 52 51 51 50 49 49 49 49 48 47 47 48 47 46 46 44 46 45 46 45 47 46 47 43 41 39 42 44 45 46 48 52 50 50 50 50
65 65 65 65 63 62 62 63 62 60 60 59 59 58 57 57 57 56 56 55 54 54 54 54 54 52 52 52 51 50 50 49 49 50 48 49 49 47 46 47 48 47 45 44 44 44 45 47 47 46 46 46 42 41 41 42 43 47 48 45 48 52 52
66 65 65 64 64 62 62 63 61 60 59 58 58 58 57 57 56 56 56 55 54 54 53 53 52 52 51 51 49 50 50 50 49 49 48 48 47 47 47 46 48 45 45 45 45 44 43 44 44 44 47 49 46 42 40 43 40 47 47 47 46 47 50
65 65 64 63 63 63 62 63 62 60 59 59 58 58 56 56 56 56 55 54 53 53 53 53 52 51 51 51 50 49 49 48 49 48 47 48 47 47 46 46 47 46 45 45 46 46 46 44 43 43 44 46 47 45 40 41 42 40 47 45 47 47 48
66 66 65 64 63 62 61 61 60 59 59 59 59 58 57 56 56 57 54 53 52 53 52 52 51 51 50 49 49 48 48 48 48 48 48 48 47 48 48 48 48 46 45 46 46 45 44 44 44 44 42 41 45 48 38 41 41 38 44 42 45 47 47
66 65 65 65 64 63 61 61 60 60 59 59 58 57 56 56 55 54 54 53 52 52 51 51 51 50 50 49 49 48 47 48 48 47 46 48 47 48 47 47 46 45 44 45 45 45 45 45 44 43 43 45 45 46 40 36 39 42 41 44 41 43 45
66 65 65 64 64 63 62 61 61 60 59 59 58 58 57 56 55 54 53 53 52 51 51 50 50 50 49 49 49 48 47 48 48 48 47 47 49 47 47 47 45 45 44 46 46 46 45 45 44 45 47 47 44 41 39 35 37 42 40 44 43 43 44
65 65 65 65 64 63 62 62 62 62 60 58 58 57 57 56 55 54 53 53 53 51 51 50 49 50 49 48 48 48 47 48 48 46 47 46 46 47 47 46 44 45 45 47 46 46 46 45 46 47 47 45 43 41 42 37 38 41 41 39 40 43 43
66 65 64 64 63 62 61 62 62 61 60 58 58 58 57 56 56 54 54 53 52 52 51 50 49 49 49 48 47 48 48 48 48 46 46 46 45 47 46 46 45 45 45 46 45 47 47 45 46 45 44 44 41 42 39 38 38 36 41 37 41 41 43
66 64 64 63 63 63 62 62 63 61 60 58 58 58 57 57 56 54 53 53 52 51 51 50 49 49 49 49 48 47 48 48 48 47 47 47 46 46 46 47 45 45 47 46 44 44 44 44 44 44 42 42 42 41 41 38 35 36 38 42 37 40 41
65 65 64 64 64 63 63 62 63 62 60 59 58 58 58 58 56 54 53 52 52 51 50 50 49 49 49 49 49 48 47 48 48 48 48 47 46 47 47 46 45 45 46 45 42 42 42 42 43 43 41 40 41 41 40 40 37 36 37 41 40 41 41
65 64 64 64 64 64 63 63 62 62 60 59 57 57 58 57 55 54 53 52 52 51 51 50 49 48 48 49 49 49 48 48 47 48 48 47 50 47 47 47 45 45 45 43 40 42 41 41 41 42 41 40 40 40 41 41 39 37 36 38 40 36 37
65 64 64 63 64 64 63 62 62 61 61 59 57 57 56 55 55 54 53 53 52 52 51 50 50 49 49 48 48 48 48 47 47 47 47 47 48 46 47 46 45 44 44 44 41 40 40 40 40 41 40 39 39 39 38 37 38 37 36 38 38 39 35
65 65 64 64 64 64 63 62 61 60 60 59 57 56 55 55 55 54 53 53 52 52 51 50 49 49 49 48 48 48 47 47 47 47 47 48 47 45 46 46 44 44 44 43 41 41 40 39 42 39 41 40 38 39 38 37 37 36 36 37 35 36 36
65 65 65 64 64 63 63 62 61 61 60 58 57 56 55 55 54 54 53 53 52 52 51 50 49 49 49 49 49 48 47 47 47 47 46 45 45 45 45 45 44 43 44 42 42 40 41 41 40 40 37 38 38 38 37 36 35 35 35 35 37 36 35
66 65 64 64 63 62 62 62 61 61 60 59 57 56 56 56 54 53 52 52 51 51 51 50 49 49 48 48 48 48 47 48 48 47 46 44 44 44 44 44 43 42 46 49 49 46 45 46 42 41 38 38 37 37 36 35 36 34 34 35 36 34 34
65 64 64 63 62 62 62 61 61 61 60 59 58 57 56 55 54 53 52 51 51 50 50 50 52 52 51 50 48 48 48 48 48 47 46 44 43 44 44 44 46 52 54 53 50 48 47 48 49 45 40 39 39 37 36 35 35 36 37 36 37 36 36
64 63 63 63 62 62 61 61 61 60 60 59 58 57 57 56 54 53 52 51 50 50 50 51 50 46 46 49 50 48 48 48 47 47 46 45 44 44 43 43 43 52 53 52 49 47 46 46 45 46 45 46 44 40 36 37 35 34 38 37 35 34 34
64 63 62 62 62 62 61 60 60 60 59 58 58 58 56 56 55 53 52 51 50 50 50 51 46 45 45 46 50 50 48 48 48 47 46 46 46 45 43 43 44 47 45 45 43 43 45 45 44 43 43 44 44 46 46 41 39 36 34 35 34 36 34
63 62 62 62 62 62 61 59 59 59 59 59 58 57 56 54 54 54 53 51 50 50 50 48 44 45 45 45 47 50 48 47 46 46 46 46 45 44 44 44 44 45 46 53 49 40 40 42 45 43 43 44 42 41 38 40 43 41 36 36 37 35 35
63 62 62 62 62 61 60 59 59 60 60 59 58 56 54 55 54 53 53 52 51 51 51 48 44 45 45 45 45 46 48 48 48 47 46 46 46 44 44 44 45 45 43 45 42 40 39 39 39 39 38 36 38 43 43 41 39 41 42 40 37 38 37
62 62 62 61 60 60 59 58 59 59 59 58 57 56 53 54 53 54 53 52 51 51 52 46 44 44 44 44 44 47 50 50 49 48 47 47 46 46 45 45 46 46 44 43 44 42 41 39 38 39 38 39 38 38 39 39 37 37 40 40 38 39 39
62 62 61 61 59 59 58 59 59 59 58 58 56 56 56 56 54 54 53 51 51 51 52 44 44 44 44 43 44 50 48 48 47 47 46 46 47 47 46 46 46 46 45 44 46 43 44 40 38 38 40 38 39 37 38 43 41 41 40 38 39 39 39
61 61 61 60 59 59 57 57 59 59 58 57 55 53 55 55 55 54 52 52 52 51 51 44 43 44 44 43 46 49 48 47 46 46 45 46 47 48 47 47 46 46 45 44 45 41 42 43 38 38 37 37 36 37 42 37 41 42 41 40 40 40 40
61 60 60 60 60 60 60 60 59 58 57 56 55 53 54 54 54 54 53 52 52 51 50 46 43 44 44 43 48 48 48 47 45 45 46 47 48 47 48 52 50 45 44 44 42 40 40 43 39 37 36 37 39 40 38 35 37 39 43 42 41 40 40
61 60 59 60 59 59 59 59 59 57 55 55 54 53 51 53 53 53 53 52 53 51 49 46 43 43 43 43 48 49 48 46 46 46 47 47 46 47 46 51 52 48 46 45 42 41 40 44 40 38 37 36 36 37 34 33 36 36 36 37 36 39 40
59 59 60 59 57 56 56 56 54 53 52 53 52 51 51 53 52 52 52 52 52 52 49 47 44 42 43 43 46 49 48 47 47 48 48 49 47 46 46 46 48 44 43 42 41 40 40 42 42 37 36 36 35 38 32 33 36 36 36 37 36 36 38
59 59 59 58 57 55 55 55 51 53 52 51 50 50 50 50 50 49 50 51 51 50 50 49 46 42 43 44 45 48 50 51 51 50 48 48 48 46 44 45 45 45 42 41 41 40 41 41 42 39 39 38 38 36 36 34 39 44 37 38 38 37 39
59 59 58 57 55 54 52 53 52 52 51 50 50 49 49 48 48 48 49 49 50 50 51 51 48 43 43 43 44 46 50 52 51 50 48 46 45 45 45 45 44 44 41 41 41 41 41 41 41 43 40 40 39 38 38 37 36 36 36 37 36 37 39
57 58 57 56 56 53 52 51 51 51 50 49 48 48 48 49 49 48 47 48 49 49 49 50 47 46 42 43 43 45 46 47 44 50 48 45 44 44 42 43 45 44 40 40 41 41 41 41 41 42 40 38 38 38 39 35 35 35 35 35 36 38 37
57 56 54 53 53 52 50 50 51 50 48 49 48 48 47 48 48 48 47 45 46 47 48 49 46 45 44 42 42 43 43 43 43 46 47 46 44 43 42 41 44 41 40 40 40 40 40 41 41 41 39 38 38 39 37 35 35 36 37 36 36 35 38